GFSCGP_500_rhum_000.txt.gz
RH
17 64 88 28 25 41 68 60 51 83 19 20 20 26 18 23 20 20 23 24 30 33 31 29 34 51 46 46 60 29 41 86 100 69 68 84 79 94 96 83 62 56 40 53
25 28 41 27 18 18 54 40 49 26 21 23 30 55 16 20 24 21 21 25 28 29 30 28 30 39 50 66 54 72 59 62 72 85 77 90 100 90 76 65 51 46 56 83
15 18 21 21 23 24 23 21 18 21 14 14 18 85 33 29 28 25 19 19 21 27 29 28 31 46 61 67 79 84 88 98 99 89 86 86 76 72 56 53 84 55 61 79
20 13 14 15 14 15 16 18 17 19 20 54 43 78 95 76 46 31 27 29 30 26 23 22 27 45 50 73 88 94 77 87 100 94 80 73 60 57 58 61 58 54 57 59
18 21 22 20 21 23 18 21 22 23 22 26 47 48 98 93 78 48 39 33 28 27 26 30 34 40 55 60 60 62 73 83 76 71 64 62 62 55 53 49 47 43 45 44
9 10 14 16 18 19 20 21 20 19 19 20 47 82 92 96 81 82 33 29 30 32 35 41 45 48 58 62 64 74 80 56 60 65 63 61 56 51 46 44 45 48 49 52
14 14 15 17 18 20 21 17 18 49 88 55 68 78 84 54 67 58 50 37 36 49 52 50 53 55 56 57 60 63 69 73 64 52 53 54 47 49 51 46 46 47 44 46
49 31 26 26 26 28 30 33 35 40 46 57 72 56 88 71 79 70 53 62 53 44 52 59 61 60 60 68 69 64 66 63 60 62 52 47 46 47 46 49 50 49 49 56
24 24 24 26 28 30 30 33 32 30 32 32 43 98 100 83 88 66 62 59 59 62 64 67 68 62 69 67 62 56 52 55 59 53 49 48 47 47 46 42 42 48 52 74
25 30 32 31 35 35 36 36 37 38 41 47 89 100 95 87 100 90 69 64 62 64 65 65 66 68 58 51 46 42 38 38 35 35 40 37 35 35 45 54 53 55 59 88
33 36 37 38 37 33 28 26 30 37 41 45 46 66 71 78 77 70 82 76 77 81 81 79 67 57 52 42 38 32 33 33 40 37 33 42 50 55 56 55 55 48 38 29
30 33 38 34 28 25 24 25 25 30 36 36 40 50 54 57 68 100 81 77 74 80 66 57 55 51 39 39 39 36 37 31 32 39 45 57 57 55 57 50 37 26 20 18
28 27 26 21 17 16 21 21 22 24 33 42 42 60 72 90 100 80 77 81 59 54 45 36 42 47 45 43 37 37 35 37 42 48 57 62 55 49 36 26 19 21 25 28
24 26 27 31 28 23 22 21 24 26 28 34 54 49 70 92 70 87 79 54 49 37 38 45 44 41 34 32 35 40 43 45 57 60 50 51 39 18 13 21 24 31 29 24
21 23 25 25 20 19 18 23 30 33 37 42 44 45 72 54 58 37 52 48 42 46 52 48 36 30 33 38 42 47 58 64 58 52 43 22 7 8 15 23 21 17 18 18
21 21 22 21 18 16 16 24 30 30 36 46 56 54 76 44 48 47 46 50 50 48 42 36 35 36 40 48 50 56 58 57 48 35 11 6 10 18 17 19 21 22 21 22
23 23 22 21 19 17 16 24 30 32 35 50 59 58 51 52 54 58 55 53 53 51 42 38 40 42 41 49 55 54 49 43 18 6 8 12 19 53 57 31 32 30 24 38
23 23 23 23 22 19 16 22 33 38 40 51 61 66 67 68 74 72 51 51 49 43 42 45 46 44 44 49 49 45 39 18 6 10 15 15 20 20 54 44 49 29 46 87
22 23 23 24 22 20 16 18 37 37 46 44 59 68 75 72 67 62 50 49 47 47 49 52 52 56 55 45 42 38 20 7 10 11 12 15 32 72 100 100 37 52 99 95
23 23 24 23 22 20 19 23 31 39 44 44 48 48 51 50 50 56 54 56 58 60 60 53 54 47 47 46 41 20 8 10 10 10 13 17 25 100 100 66 54 97 88 65
23 24 24 22 22 22 21 26 35 42 41 50 66 55 59 60 59 56 55 55 55 50 52 56 55 52 48 41 19 10 11 10 10 13 15 20 71 100 71 52 93 86 62 61
23 24 24 24 26 24 22 26 31 44 59 57 61 66 70 68 63 59 60 59 53 56 62 61 53 49 38 16 10 11 10 10 16 14 16 21 34 50 53 83 89 56 65 66
24 26 23 25 27 28 27 27 33 60 69 73 76 74 69 72 62 63 60 60 66 67 64 55 50 38 16 11 11 10 12 16 14 17 19 23 39 66 86 89 58 50 69 66
26 33 28 27 30 32 31 33 44 60 71 83 84 74 70 66 66 71 75 76 72 70 58 52 35 14 11 12 12 15 20 17 18 20 34 61 77 84 94 75 37 53 71 71
25 34 36 32 34 32 44 59 70 73 91 91 87 74 68 69 78 77 83 82 75 60 54 37 15 11 11 11 15 20 21 19 22 34 63 74 86 96 94 65 42 43 74 76
40 41 39 35 32 41 53 64 73 87 96 89 81 80 85 94 94 96 90 76 64 57 34 14 11 12 12 15 21 21 21 25 27 54 69 74 76 94 92 76 47 47 76 80

GFSCGP_500_rhum_003.txt.gz
RH
34 17 11 28 48 89 90 79 82 77 36 26 26 33 30 18 18 22 24 24 23 23 21 23 30 26 42 61 52 30 34 33 38 63 98 84 89 89 86 70 68 55 53 54
56 47 66 80 45 46 88 63 52 18 18 21 22 27 27 24 30 21 20 21 21 24 29 36 37 48 62 70 63 39 45 77 63 74 80 81 96 87 73 68 58 58 48 42
19 22 30 23 22 24 32 50 46 24 16 21 19 28 29 30 36 62 58 47 37 44 39 41 43 49 41 41 54 81 83 64 56 73 78 93 90 66 60 56 47 47 51 50
18 16 19 20 20 20 18 23 20 21 21 26 28 83 64 32 21 10 36 26 45 40 36 43 43 40 38 42 46 51 58 65 72 70 82 77 65 61 54 54 55 56 53 52
23 22 19 18 19 16 18 19 20 22 24 27 29 58 100 91 85 66 79 66 73 68 35 33 37 44 51 58 60 65 68 64 64 64 66 64 60 59 59 59 57 54 48 40
7 12 12 14 20 21 21 21 23 22 21 20 38 71 97 88 98 44 66 66 94 70 43 40 46 48 49 52 61 61 63 68 66 62 60 63 60 53 46 52 54 44 36 33
11 13 13 13 13 14 15 17 16 14 48 33 40 73 98 86 72 55 49 60 54 57 57 54 49 46 56 63 64 69 72 67 59 43 38 35 36 36 32 30 30 30 33 40
13 20 22 22 21 20 20 23 24 29 44 47 68 57 69 65 76 87 88 77 92 92 85 71 69 69 63 64 82 74 73 70 59 48 40 34 26 25 29 29 35 38 45 52
18 21 23 26 26 28 29 31 33 35 35 38 48 51 88 99 98 100 99 94 96 90 62 74 68 62 60 50 41 33 26 21 19 19 23 28 28 26 32 40 47 54 56 56
24 30 29 28 32 31 30 29 28 25 28 34 64 77 73 71 73 71 78 92 67 59 77 86 68 58 49 38 34 33 28 24 24 27 28 30 35 38 41 48 55 50 42 24
32 34 32 32 29 23 18 16 19 21 22 30 37 54 67 65 67 66 63 92 88 74 66 54 35 30 35 37 35 24 25 26 29 30 34 42 50 42 41 48 42 22 9 9
29 30 34 26 24 19 18 19 21 24 24 25 33 54 58 57 58 76 99 75 65 68 48 34 39 42 40 35 28 29 31 34 39 40 44 46 43 41 39 24 8 8 13 23
27 26 25 27 21 21 18 18 20 23 26 29 30 47 49 48 59 63 76 63 74 45 32 43 44 44 36 28 30 34 38 40 45 42 38 38 39 35 20 10 10 10 16 47
25 23 23 20 18 16 15 15 16 19 23 23 28 33 44 34 45 42 50 45 38 42 56 55 47 39 31 33 38 40 42 50 47 41 40 38 35 18 11 11 11 21 97 97
23 22 21 22 19 18 18 16 15 17 25 27 30 30 29 35 38 50 60 51 49 60 59 48 41 37 38 40 40 42 53 52 51 46 41 34 19 12 11 11 19 100 78 53
21 21 22 23 22 22 21 20 17 16 24 30 34 33 30 38 58 69 62 62 66 66 56 49 47 45 42 37 42 49 50 51 46 42 29 13 11 10 10 14 92 100 100 86
19 22 24 24 24 23 22 21 20 18 21 25 29 31 34 43 50 51 54 58 59 59 56 51 47 40 39 42 48 49 50 47 44 33 13 12 10 8 12 17 47 100 97 98
18 22 23 24 23 22 20 19 20 20 21 23 29 34 41 51 44 45 58 62 62 60 56 50 41 39 41 49 56 52 52 48 35 17 13 9 7 10 14 18 66 99 100 100
21 22 22 22 23 23 21 19 22 21 22 28 36 38 44 50 61 59 64 66 64 56 51 48 49 53 63 67 59 55 50 36 20 14 10 8 13 14 15 23 79 98 98 71
21 22 22 22 23 22 19 16 20 20 22 29 31 40 52 66 75 81 81 74 69 65 64 60 65 66 63 60 59 54 39 21 14 10 8 13 16 18 20 37 47 71 86 69
21 21 22 23 22 21 20 20 22 24 26 28 33 51 56 63 75 78 74 70 61 56 59 61 57 61 65 63 56 43 26 15 10 8 15 18 21 26 39 44 65 85 74 55
20 21 23 23 22 20 20 21 26 29 28 31 45 52 54 59 73 75 69 61 58 58 53 57 64 70 69 59 43 27 16 11 9 15 19 23 26 49 65 83 90 88 53 54
21 23 24 23 22 23 26 28 35 32 32 37 45 50 58 70 70 69 66 60 59 58 66 70 74 74 60 46 27 17 12 9 16 20 21 26 35 62 68 72 82 90 59 45
22 22 22 22 25 32 49 36 37 35 37 50 51 62 78 78 74 68 64 59 53 64 78 83 77 62 48 30 16 13 9 14 20 22 24 29 53 67 72 71 85 90 75 54
25 27 31 26 31 34 37 39 39 40 52 50 52 74 80 79 75 70 64 58 68 84 91 81 65 48 30 19 13 10 10 16 22 22 27 34 66 74 64 68 91 91 81 61
37 34 34 29 43 47 46 48 44 53 53 58 82 88 86 76 74 67 64 76 89 96 85 70 51 32 21 15 11 10 13 17 20 20 34 40 76 80 68 74 88 89 81 63

GFSCGP_500_rhum_006.txt.gz
RH
54 55 41 51 67 81 99 86 50 82 81 81 87 34 22 20 18 21 28 26 25 30 31 34 40 32 46 70 70 40 71 94 39 36 64 77 79 79 79 75 81 70 64 58
25 31 40 41 40 80 100 82 70 58 46 63 52 28 25 28 21 24 46 35 80 86 76 72 71 87 100 62 38 54 51 33 36 70 67 72 68 70 78 89 79 74 63 59
38 54 37 24 49 52 92 82 73 56 39 26 26 23 23 26 18 21 36 52 89 99 92 96 92 85 58 47 49 43 42 48 56 68 74 71 67 70 72 75 73 60 57 49
31 26 20 23 25 24 30 65 67 46 26 36 35 41 27 20 26 27 70 92 100 100 99 100 99 78 50 45 47 47 51 62 72 72 69 71 72 74 72 69 58 48 38 33
21 16 16 18 21 17 17 21 26 23 25 32 38 68 53 42 27 40 81 93 99 99 85 100 97 78 64 62 59 62 73 72 70 71 76 73 70 67 54 40 29 32 35 32
22 25 24 26 26 27 23 25 25 24 24 23 27 36 53 48 68 73 100 98 95 66 60 59 75 75 71 69 66 77 75 72 76 74 60 44 30 26 24 25 28 31 28 29
11 11 11 12 12 13 14 14 15 16 16 22 38 70 67 70 77 88 92 60 42 58 79 92 75 87 72 70 73 78 78 78 65 41 27 22 22 24 27 26 26 27 27 28
11 12 15 17 17 18 20 22 23 27 31 74 57 48 67 70 72 72 33 70 79 99 91 65 75 65 63 65 58 37 30 24 16 17 20 23 22 21 21 26 31 34 36 36
25 26 18 20 21 25 27 30 30 30 33 34 34 34 33 32 35 40 93 99 91 78 57 69 72 64 61 32 29 33 19 19 22 24 27 30 30 31 36 39 39 40 39 37
24 24 28 27 30 29 22 17 17 19 19 23 24 24 24 30 36 46 48 51 50 52 73 77 58 40 29 33 34 25 24 28 28 32 39 40 39 39 42 44 43 41 36 22
24 28 31 29 22 20 17 18 19 19 18 19 22 20 25 27 26 32 37 48 68 87 76 51 30 32 38 43 41 42 42 40 45 50 44 39 46 53 50 47 45 32 18 12
30 27 28 23 22 16 17 17 18 19 19 21 21 21 19 20 23 28 37 41 50 100 90 45 38 48 56 52 50 49 47 48 46 40 44 49 52 53 52 48 33 19 13 9
26 25 25 26 21 18 16 14 14 14 16 18 23 23 19 20 22 27 37 47 54 75 77 52 54 63 62 51 47 49 52 53 52 52 50 51 52 54 50 36 20 13 9 8
27 25 24 24 21 18 16 16 17 17 16 16 19 23 22 22 25 30 37 48 61 62 54 59 67 64 49 49 54 56 56 52 43 50 54 55 56 52 36 19 14 9 8 12
28 23 21 20 19 18 20 21 20 19 18 17 18 19 23 28 31 36 35 38 40 46 57 66 57 53 58 61 63 57 47 40 46 49 53 55 53 40 23 16 10 9 13 15
26 23 21 22 23 24 24 23 22 20 19 19 18 18 21 26 28 32 41 50 54 58 65 62 65 68 68 63 54 45 45 45 48 53 60 54 41 26 18 10 8 13 15 18
20 20 20 21 23 24 24 24 23 20 18 19 18 18 21 24 28 37 47 54 64 73 77 80 84 80 73 60 52 45 44 50 54 62 54 38 24 18 11 10 14 18 19 28
18 16 16 19 22 22 22 24 24 20 18 20 20 22 23 27 31 42 46 55 73 87 90 91 86 74 62 53 44 43 49 57 63 55 39 26 18 12 10 15 19 23 23 31
20 16 18 22 22 22 21 24 23 19 21 23 25 33 28 30 37 45 51 57 70 80 84 88 72 58 49 45 41 44 54 63 58 45 34 19 12 10 16 19 26 42 53 77
25 24 24 23 23 21 21 23 23 22 24 28 34 38 34 34 39 48 51 58 72 79 78 67 59 53 47 38 37 42 57 62 53 36 22 13 11 15 19 23 43 66 84 81
23 24 24 24 22 21 22 23 23 21 25 43 45 36 36 37 45 48 55 74 86 87 73 64 58 48 40 38 42 62 68 61 40 19 14 10 13 18 20 25 59 71 73 80
23 23 24 23 23 21 23 23 22 24 29 36 43 36 38 40 45 46 63 82 82 73 66 60 52 46 47 51 65 72 64 46 21 14 11 12 17 18 21 37 66 69 72 80
20 24 23 23 22 23 22 23 23 26 28 48 48 42 38 40 42 55 77 77 72 67 65 62 56 55 64 76 78 67 50 23 16 12 12 14 17 18 23 51 67 62 68 87
24 23 22 23 26 25 25 25 24 26 41 51 43 40 36 42 54 72 66 64 70 68 64 62 61 65 75 78 69 51 25 19 14 12 14 15 15 21 30 62 79 70 74 86
38 29 29 22 27 27 27 28 30 47 50 43 44 38 40 59 77 71 68 74 71 70 70 69 70 76 79 72 51 28 22 16 12 14 16 14 16 27 38 64 81 72 66 86
43 46 47 44 45 32 34 44 48 43 40 40 32 35 59 84 82 76 85 87 87 81 75 76 83 84 72 50 30 26 19 14 13 15 17 14 22 38 47 51 67 69 70 85

GFSCGP_500_rhum_009.txt.gz
RH
32 59 61 55 54 29 30 43 52 76 78 58 21 17 20 20 19 23 24 26 25 49 71 62 55 58 56 60 66 65 69 68 67 41 51 72 94 83 82 78 82 75 68 41
28 46 35 49 88 81 71 38 39 35 48 40 20 20 18 15 14 14 24 62 58 67 77 98 97 100 95 63 61 87 52 42 48 52 54 69 82 65 66 73 76 63 44 32
18 25 59 82 85 79 89 78 77 72 46 28 21 18 16 18 23 21 26 73 84 88 87 100 98 93 86 92 83 72 62 59 57 55 57 58 70 75 79 70 51 35 25 23
51 28 35 36 26 45 79 83 77 72 63 56 28 23 23 24 27 37 48 76 98 77 94 79 91 79 100 91 76 64 63 64 61 60 73 79 83 78 62 44 32 28 30 33
36 31 25 23 25 28 31 61 68 66 66 61 32 28 24 25 28 45 68 100 78 99 98 89 76 78 80 85 78 62 62 65 69 78 85 84 67 51 36 31 31 38 39 40
21 18 20 19 18 18 20 22 25 31 32 33 31 29 23 26 63 95 100 93 82 98 78 61 79 93 99 82 75 69 79 82 80 77 54 41 37 33 32 33 35 35 34 38
23 22 22 22 26 25 30 31 29 27 25 23 22 20 17 26 41 70 84 85 98 71 93 96 98 91 79 71 71 75 79 64 49 46 46 40 34 31 33 33 29 26 26 29
10 12 13 14 13 14 15 15 16 19 22 21 23 37 46 46 42 43 41 41 52 55 96 94 80 62 73 75 63 45 30 29 34 34 28 27 28 27 31 31 26 29 43 44
14 14 18 20 20 19 21 23 26 28 29 25 21 18 21 21 22 24 31 30 44 82 46 53 59 68 56 53 35 35 41 48 43 35 34 35 37 38 34 31 43 52 52 52
18 24 22 24 26 28 26 19 17 18 17 17 16 15 14 16 17 19 21 23 28 36 41 41 64 72 51 42 43 46 52 54 48 45 44 45 43 36 33 42 46 42 43 45
21 25 29 30 28 18 16 17 19 20 19 19 18 18 17 16 16 16 18 19 22 25 28 33 36 42 49 51 54 62 63 54 51 51 53 48 38 38 38 36 37 42 45 46
29 29 30 31 23 18 18 18 16 15 15 15 15 16 16 17 19 20 20 20 20 22 25 29 37 48 82 72 73 68 59 61 63 59 51 44 38 36 37 45 49 50 48 37
27 28 30 26 22 19 18 14 14 16 16 16 16 15 15 16 18 21 23 23 23 24 30 34 39 52 62 60 57 62 72 71 65 58 45 39 39 39 36 45 48 51 38 25
26 29 27 26 23 19 17 16 18 18 17 18 18 15 14 15 16 20 24 26 27 30 37 39 46 51 57 63 73 82 81 75 59 46 42 39 31 28 33 47 53 42 31 22
26 25 24 26 25 23 21 19 21 20 20 19 17 16 18 19 22 24 26 28 30 34 37 39 44 58 79 92 95 92 78 58 52 50 41 32 31 37 48 55 44 29 19 11
29 29 26 24 23 23 23 24 24 23 22 22 18 18 22 27 37 37 32 31 33 38 44 49 58 78 89 96 88 76 66 61 55 42 37 36 42 50 58 48 32 21 11 11
34 28 25 22 21 21 22 24 24 24 24 23 19 20 23 36 42 42 36 34 36 39 43 46 53 76 85 81 79 73 68 54 45 43 42 46 51 57 48 35 19 11 13 16
35 35 28 20 20 17 20 22 23 23 23 23 22 20 23 36 43 41 36 35 37 42 46 50 67 73 79 80 72 64 57 53 49 47 48 56 53 46 36 21 12 13 15 19
34 35 32 24 20 18 19 23 24 23 23 25 24 22 23 28 39 43 38 38 42 47 49 45 60 82 79 72 66 61 55 51 50 52 60 54 47 39 23 14 13 14 17 22
30 35 35 30 24 21 22 25 25 24 22 24 24 23 24 30 47 49 44 42 44 46 39 59 81 79 73 67 62 59 56 55 56 63 56 50 40 25 17 12 15 15 19 35
22 29 32 32 29 21 26 27 26 24 24 23 25 24 25 41 55 50 44 42 39 38 57 72 75 76 74 76 66 60 59 61 65 61 51 39 27 18 13 15 14 16 24 49
23 19 24 29 28 21 25 23 24 24 23 25 26 27 32 50 50 45 41 33 37 54 77 79 83 88 84 65 56 62 67 69 66 52 38 28 20 14 14 15 14 24 33 58
36 42 32 29 25 23 24 22 23 23 24 30 30 30 40 42 43 38 33 34 53 75 83 91 93 84 69 63 69 72 74 72 54 37 28 21 16 14 16 14 18 30 34 61
38 54 46 45 42 39 31 29 27 28 34 32 32 39 42 43 38 36 36 54 82 76 77 85 83 73 75 78 80 80 76 54 36 29 22 17 15 17 17 15 31 41 41 53
33 43 45 34 40 35 32 39 44 39 33 34 40 44 40 42 43 48 65 87 88 85 85 85 84 89 85 82 85 78 54 35 29 22 17 16 16 19 18 28 46 51 47 57
44 55 46 35 44 37 43 47 41 40 44 44 41 44 46 58 69 76 92 99 90 88 87 92 100 97 91 89 73 55 39 29 22 16 16 17 20 21 26 41 46 51 75 82

GFSCGP_500_rhum_012.txt.gz
RH
97 97 96 96 82 53 47 60 89 51 16 19 20 24 27 26 26 26 22 24 24 27 42 52 42 54 56 57 52 57 81 99 76 67 62 52 53 77 68 61 67 63 70 68
79 82 88 79 64 37 29 39 52 43 23 23 45 32 21 18 15 15 17 29 60 61 52 43 63 70 73 58 63 85 58 45 46 48 48 50 52 59 63 73 76 71 55 33
48 38 42 57 37 30 59 32 49 61 49 35 35 22 18 18 18 16 18 25 42 46 66 94 89 98 81 64 61 51 56 63 71 67 64 69 73 76 76 72 59 34 22 24
54 52 55 55 73 73 70 65 47 70 72 71 57 40 23 18 17 19 24 30 41 50 75 88 96 86 66 68 63 86 99 72 62 60 68 75 76 71 52 36 27 25 34 53
30 33 47 79 70 56 60 51 47 67 70 75 60 38 18 18 21 26 32 44 57 58 81 91 96 73 65 77 100 99 61 59 62 70 75 73 52 42 44 51 59 63 57 46
39 43 43 36 31 26 29 33 40 47 40 30 17 19 18 22 26 27 48 62 62 72 44 74 70 66 100 99 75 57 77 86 74 67 51 44 50 53 54 50 43 38 40 36
27 25 24 22 22 20 21 21 21 22 24 24 25 22 16 18 30 50 53 48 60 49 38 43 75 62 80 66 55 64 84 68 58 41 40 44 48 49 43 37 37 40 33 26
32 30 22 18 19 22 24 25 28 25 19 17 18 17 20 23 25 28 32 32 32 30 33 51 75 38 38 41 63 69 57 47 36 36 42 49 47 42 44 45 41 34 30 29
12 12 14 13 14 15 15 17 19 22 23 23 18 16 16 18 19 20 20 21 21 21 24 25 28 35 41 41 42 53 49 46 50 50 45 43 50 53 48 42 36 33 32 26
11 13 18 24 24 23 23 26 26 20 16 16 17 16 17 16 16 17 17 18 18 18 19 20 22 25 28 30 35 46 42 53 52 52 54 59 57 52 44 41 38 35 31 32
15 25 28 29 27 30 28 19 17 20 19 18 18 17 16 16 17 18 20 21 23 24 24 23 22 22 24 28 30 40 54 60 63 62 65 61 57 52 48 43 38 36 37 34
29 28 28 33 33 26 17 18 20 16 15 15 15 15 14 13 14 15 18 24 26 26 25 25 25 24 26 30 38 45 56 64 77 73 76 66 57 53 47 40 42 41 36 39
26 28 31 32 28 21 18 18 15 15 17 17 16 14 15 15 18 21 30 31 31 30 28 27 26 27 31 37 41 47 52 99 98 84 71 64 58 51 48 48 43 40 42 47
30 29 32 32 26 25 21 19 17 17 18 18 19 17 16 17 21 24 30 37 38 35 32 30 30 31 36 39 42 46 60 74 82 79 71 61 57 56 53 48 39 42 46 44
29 28 28 26 28 26 22 21 20 19 21 21 21 21 20 17 18 21 30 33 37 39 36 34 34 36 40 40 56 45 68 83 83 75 65 62 61 54 46 39 45 50 46 32
31 29 29 26 27 25 23 22 22 23 24 23 22 22 22 21 20 20 22 29 35 42 42 38 36 39 44 44 45 66 82 86 78 72 70 67 46 42 44 46 54 47 33 22
31 30 28 27 29 26 22 22 22 21 22 22 22 23 23 23 23 22 23 27 39 48 47 43 39 40 41 50 61 82 88 82 79 80 63 45 45 48 48 53 51 36 23 15
26 29 31 28 27 22 19 20 19 18 19 22 24 24 23 23 24 23 23 26 46 49 49 46 44 46 58 62 78 84 83 84 84 64 52 53 50 54 60 52 36 24 16 14
19 23 26 28 25 21 23 21 19 19 22 25 26 25 24 24 23 25 25 31 49 54 51 50 49 53 54 74 86 89 89 79 66 64 59 56 58 63 53 37 23 15 14 15
21 18 21 26 27 21 22 27 29 30 22 28 26 25 24 23 23 27 29 34 50 55 56 54 42 45 76 81 81 82 79 76 76 72 71 70 67 55 37 22 14 13 15 15
23 27 24 21 17 13 24 28 31 27 26 24 24 23 23 25 25 31 34 40 57 57 49 40 41 69 88 89 87 86 88 84 82 81 79 73 58 37 21 13 13 15 17 14
12 17 27 31 29 22 28 27 27 26 24 24 25 25 28 28 35 34 38 56 54 45 47 56 78 96 100 96 92 95 88 89 83 82 75 56 35 20 13 13 15 18 17 20
11 23 23 28 32 37 39 42 46 46 41 38 36 35 36 50 44 47 48 42 40 52 74 86 100 100 100 99 100 92 93 90 86 76 53 30 19 12 13 15 17 21 21 34
12 20 22 25 36 41 42 35 39 39 40 39 42 51 49 47 54 49 39 45 68 85 93 100 100 100 100 100 98 94 92 89 77 49 26 17 12 13 15 17 24 26 32 36
14 22 24 18 29 30 38 43 44 42 45 52 53 52 58 56 46 47 71 76 91 96 97 100 100 100 100 100 100 97 90 73 40 23 17 12 14 18 18 24 32 34 38 57
27 44 35 26 34 28 34 46 50 56 62 59 59 63 59 47 55 84 80 83 99 80 95 100 100 100 100 100 99 91 70 37 23 17 12 16 21 20 22 32 40 42 43 45

GFSCGP_500_rhum_015.txt.gz
RH
97 96 93 93 79 70 48 44 23 21 21 27 27 29 50 63 42 38 34 22 24 23 25 41 54 54 54 65 69 62 79 89 81 47 63 63 60 63 57 59 64 70 76 78
94 84 99 88 80 66 46 44 71 38 28 21 30 40 32 27 23 25 32 27 31 35 30 35 48 64 66 86 94 57 40 32 36 52 54 57 52 53 56 70 75 76 69 54
88 84 89 80 71 76 68 85 81 73 61 41 37 27 27 23 21 20 22 25 25 26 27 32 61 75 73 72 74 58 48 52 73 77 67 57 62 68 73 62 44 36 36 40
72 43 75 71 73 70 48 69 65 78 91 97 49 35 29 20 18 22 24 25 30 35 40 59 79 74 99 74 48 67 91 97 90 70 55 54 60 54 43 38 46 52 54 55
75 62 54 60 69 66 45 76 70 52 40 37 40 29 22 16 22 25 22 26 35 39 51 62 38 32 29 51 76 61 100 96 49 54 62 64 60 50 50 60 70 72 61 50
65 52 39 48 48 69 80 62 61 52 34 23 24 27 15 21 24 20 29 39 36 38 63 48 37 29 43 82 55 34 26 27 42 62 83 68 52 53 52 52 49 49 50 48
29 53 49 46 66 39 35 30 26 22 18 16 21 20 17 18 23 33 28 26 33 36 33 32 28 32 30 29 22 22 24 28 33 40 62 55 50 47 48 48 54 53 48 46
31 34 31 34 33 27 22 21 20 18 21 22 17 16 21 22 22 19 16 16 16 18 20 20 19 18 19 20 21 22 24 26 29 32 36 40 47 55 57 53 52 54 52 47
27 24 26 24 23 20 20 19 21 18 18 20 18 16 15 15 14 15 16 17 18 20 21 22 22 21 21 21 21 22 24 25 27 28 31 35 43 46 59 69 66 60 54 46
10 10 11 12 13 13 14 17 19 23 20 16 18 16 17 17 17 18 19 19 21 24 23 24 24 25 24 23 23 24 24 27 28 35 36 39 48 88 96 81 70 55 47 43
10 10 13 14 20 23 23 27 27 19 19 19 18 18 18 16 15 15 15 18 27 28 31 32 32 29 27 26 26 25 27 37 39 40 37 51 80 76 75 63 54 52 47 39
14 15 18 23 28 29 31 26 18 20 20 16 15 16 16 15 14 15 19 24 29 35 37 36 36 36 34 33 32 31 34 39 42 38 93 76 70 71 62 57 57 50 43 43
20 29 32 26 29 29 26 19 19 19 16 16 18 18 18 16 16 16 17 20 22 24 24 28 32 35 39 40 38 38 39 40 49 65 55 66 68 63 60 62 58 50 49 46
27 30 29 31 32 29 24 19 19 17 17 18 20 19 20 20 20 20 18 18 19 20 22 25 34 41 46 45 43 42 44 56 60 52 67 66 65 66 69 63 58 56 50 50
24 28 28 30 29 26 22 21 20 19 20 20 22 22 24 22 22 22 22 22 23 22 22 24 36 46 50 50 49 49 51 50 49 67 71 74 75 77 71 67 59 51 49 50
25 29 26 26 25 23 24 24 22 24 23 22 23 22 23 23 23 23 23 23 24 24 24 25 30 45 55 56 54 52 50 46 59 78 81 82 83 82 75 57 53 52 52 34
23 27 26 22 23 21 18 22 23 23 23 22 21 20 19 20 22 25 25 25 24 25 26 28 30 38 51 57 55 50 44 46 86 93 94 96 91 77 62 57 57 53 30 18
19 21 20 21 24 18 18 21 25 25 24 22 20 21 23 25 25 26 26 25 25 27 28 33 35 37 54 59 52 44 47 89 100 100 100 94 77 69 63 63 47 30 17 9
14 16 16 17 17 15 17 21 23 24 24 29 31 29 28 27 26 28 26 26 28 30 34 44 43 52 62 55 53 62 95 100 100 99 90 82 73 71 65 49 30 16 9 11
20 22 20 18 17 13 15 19 20 21 18 30 27 26 26 26 25 27 28 30 33 37 52 48 60 64 57 71 84 99 100 100 96 100 93 83 74 69 54 37 18 9 10 15
7 7 8 11 12 10 22 26 26 26 25 24 27 31 34 39 40 40 40 41 48 59 54 68 61 66 84 94 99 100 100 95 100 99 86 80 74 63 40 20 10 10 16 18
7 7 10 13 12 14 20 23 24 24 29 30 34 43 48 48 47 44 45 64 60 56 62 51 65 80 86 77 96 100 98 100 100 100 97 74 67 47 24 11 10 14 20 19
8 9 8 9 11 15 17 20 20 24 29 37 37 45 45 44 46 57 61 58 63 61 49 52 68 80 84 93 100 100 100 100 100 100 87 63 59 32 14 10 13 19 21 26
8 9 9 10 24 22 18 16 17 19 27 38 43 45 47 52 58 56 62 66 60 50 49 79 76 88 95 98 100 100 100 100 100 88 64 59 48 19 9 13 16 23 26 36
8 13 13 13 18 18 22 28 32 38 41 45 51 57 70 72 73 68 49 51 70 82 86 99 98 100 99 96 100 100 99 100 93 70 61 57 26 10 12 16 22 28 36 45
26 25 23 23 32 32 41 54 60 68 82 84 81 85 84 82 61 55 81 89 96 98 100 100 90 99 99 100 100 100 100 99 84 67 61 34 12 11 16 19 25 37 42 48

GFSCGP_500_rhum_021.txt.gz
RH
99 98 91 100 96 99 97 92 71 77 50 74 75 36 25 58 82 75 68 54 41 30 27 28 36 42 50 52 50 43 44 52 78 89 63 57 37 35 43 34 29 39 46 60
99 97 98 99 100 96 91 87 94 44 24 35 40 90 43 83 87 76 55 50 41 41 38 40 47 44 39 43 35 36 53 64 65 65 38 28 19 19 19 23 24 26 31 38
90 98 100 98 98 98 99 92 100 91 35 36 97 100 36 36 41 44 43 52 52 40 41 47 41 40 60 64 60 57 66 66 52 28 19 18 18 19 20 22 22 25 32 37
90 99 99 100 99 99 99 62 98 83 82 82 49 88 97 37 23 29 36 34 33 35 34 36 41 47 59 48 35 25 22 22 21 19 19 19 18 19 19 18 21 23 26 35
100 100 100 93 97 75 96 70 64 70 45 99 83 66 89 87 40 27 30 30 34 34 33 30 42 44 34 22 18 18 17 18 18 18 18 19 21 23 23 22 23 25 27 30
94 94 72 92 67 54 43 59 53 55 79 86 77 99 92 97 64 32 26 25 28 26 24 37 37 28 18 16 17 18 18 19 19 20 22 28 29 29 30 30 38 41 36 33
100 100 94 88 79 43 59 86 95 91 100 86 94 67 76 95 79 44 20 21 18 19 31 26 19 16 17 19 22 24 23 24 25 26 29 31 33 33 37 99 88 100 57 41
90 78 42 38 71 100 50 100 100 86 93 61 76 39 63 51 23 17 15 17 19 19 16 16 18 19 21 26 27 27 26 27 30 32 34 36 38 39 47 92 90 45 42 38
100 99 74 34 50 57 80 50 55 60 28 22 23 57 69 20 15 14 13 14 14 16 18 20 22 22 27 25 23 20 21 24 28 32 37 42 44 46 49 48 47 42 38 35
83 96 49 28 30 29 29 29 28 26 24 22 69 72 67 24 15 16 16 16 17 15 14 18 23 23 21 19 18 19 20 23 26 34 42 44 47 51 51 52 50 43 38 45
42 35 42 27 23 45 24 22 22 29 41 18 22 61 55 19 17 16 15 14 13 14 15 17 18 18 18 18 20 21 22 24 25 26 27 31 42 50 68 56 50 46 52 83
12 11 10 13 8 10 10 11 14 16 21 23 19 26 21 16 16 16 16 17 18 19 19 20 20 21 22 22 23 23 24 25 27 28 31 35 42 51 59 55 56 67 85 86
13 12 10 8 8 9 12 22 25 25 26 19 19 26 15 15 17 18 19 20 22 23 23 23 23 23 24 24 25 26 27 28 30 31 34 43 51 62 59 67 80 85 84 84
11 10 10 13 97 67 20 24 28 28 18 17 18 17 16 16 17 18 20 22 22 22 22 21 20 23 26 28 29 28 30 32 34 36 47 57 62 63 75 87 89 86 86 90
8 11 16 23 32 33 24 28 28 23 18 16 18 20 20 22 19 21 21 22 22 22 22 23 28 32 34 32 32 33 35 35 42 56 65 66 64 80 92 90 89 90 92 98
10 14 20 25 27 26 25 28 28 26 26 24 24 22 27 24 23 23 24 26 28 32 35 38 38 36 34 33 35 38 42 48 66 65 68 64 61 92 100 97 94 94 95 92
14 16 25 24 28 25 18 26 28 27 26 26 25 26 25 21 23 26 29 30 33 36 37 36 36 38 44 49 52 52 58 67 69 68 66 66 97 100 100 100 97 91 94 100
17 20 23 22 26 23 23 26 28 26 27 29 24 27 28 22 27 25 28 29 31 34 40 51 60 62 60 58 56 67 70 70 65 60 75 94 96 97 100 99 100 99 100 100
19 22 24 20 21 20 19 16 20 20 22 17 16 20 22 19 20 26 22 33 42 47 51 53 56 58 58 70 70 68 61 55 64 83 89 77 88 100 100 100 100 100 100 99
26 24 22 21 17 11 9 12 10 9 10 6 11 13 14 18 19 32 24 28 31 36 40 46 51 59 72 76 71 54 70 91 97 79 80 99 100 100 100 100 100 100 100 99
10 9 8 7 7 7 7 7 7 8 9 9 10 10 11 14 20 21 22 26 32 40 46 55 71 86 83 69 66 79 83 74 76 93 98 100 100 100 100 100 100 100 100 99
11 10 11 10 10 9 9 8 7 7 6 7 8 10 11 14 19 24 31 46 65 76 75 80 71 56 63 73 84 75 82 83 82 96 100 100 100 100 100 100 100 100 99 92
9 11 10 11 11 9 8 7 6 6 7 9 11 17 21 28 36 46 60 78 79 67 60 54 58 72 74 75 82 96 98 81 90 100 100 100 100 100 100 100 100 100 87 51
10 11 10 9 8 7 6 6 5 7 10 18 24 31 38 47 59 72 66 61 56 49 54 70 73 77 80 84 90 91 78 91 100 100 100 100 100 100 100 100 98 89 54 26
12 12 10 8 8 7 8 6 10 20 24 34 44 47 48 54 53 50 46 48 61 64 68 75 80 83 86 84 87 86 100 100 100 100 100 100 100 100 100 92 65 40 15 13
13 10 9 7 7 10 14 17 26 35 43 40 36 37 35 40 40 46 68 67 69 68 71 78 81 79 80 91 100 100 100 100 100 100 100 100 100 99 92 83 40 21 15 18

GFSCGP_500_rhum_024.txt.gz
RH
63 99 100 84 92 99 95 94 94 93 64 51 88 92 42 13 22 20 80 19 18 16 22 23 26 30 30 25 37 35 20 52 58 43 54 65 41 17 16 17 17 18 20 20
82 87 98 94 93 98 100 91 93 75 25 50 86 90 23 15 29 29 24 16 15 22 29 32 38 35 31 19 20 36 50 52 47 50 56 25 16 16 17 19 23 26 26 24
71 94 88 94 98 88 96 97 93 94 26 18 80 71 74 25 20 21 22 24 21 21 17 25 25 26 26 24 44 44 40 28 20 20 18 17 16 18 22 25 28 29 28 28
95 94 83 100 94 98 98 74 90 99 92 47 85 96 93 93 39 22 21 18 16 20 18 23 29 23 33 52 55 29 20 18 17 17 18 18 20 22 24 25 28 30 33 35
96 98 100 98 98 77 94 79 66 90 79 78 90 95 76 84 76 35 32 33 21 18 16 21 28 25 31 38 22 16 16 17 18 19 20 22 23 22 24 27 33 38 40 43
93 65 96 95 96 64 54 36 36 70 93 80 88 96 88 96 98 92 91 57 36 22 17 17 18 18 28 19 16 17 20 24 24 24 26 25 25 26 30 35 40 43 46 48
92 68 67 69 52 40 33 48 64 99 93 84 91 95 97 98 93 90 53 44 32 18 15 16 17 23 15 15 18 24 25 24 23 22 22 23 25 31 35 38 43 47 50 53
82 83 98 64 44 96 40 66 97 96 89 92 90 87 80 63 70 63 44 16 18 17 16 15 14 16 19 19 22 23 22 20 19 19 20 23 26 29 28 30 30 32 40 61
69 87 88 81 20 37 97 78 96 90 94 46 53 65 54 43 59 56 16 14 13 13 15 17 16 18 22 23 23 20 18 18 19 21 22 24 25 26 26 28 30 36 41 63
91 96 87 65 20 30 28 27 21 26 20 16 21 85 94 88 54 20 16 16 15 16 16 14 13 15 17 18 18 19 20 21 22 24 25 26 27 28 29 31 34 46 68 65
63 97 98 19 24 26 23 26 20 23 31 19 15 77 92 72 47 19 17 15 14 14 14 15 16 18 20 21 22 23 23 24 26 27 29 29 30 31 31 35 47 63 69 70
23 25 28 18 19 15 16 26 19 13 16 12 13 23 40 41 27 16 16 16 15 16 16 17 19 22 23 22 21 21 24 28 32 33 32 33 33 36 44 59 61 64 67 78
13 10 9 10 47 10 8 10 13 28 15 17 20 22 19 20 18 15 15 16 18 18 20 20 19 21 22 22 26 32 37 37 35 36 41 46 43 63 69 70 67 66 71 82
14 13 14 11 26 82 92 38 12 20 17 26 22 18 32 20 15 13 14 17 20 21 21 23 22 22 28 34 36 38 35 37 39 47 60 55 64 73 73 69 66 73 83 84
8 9 12 11 21 76 99 63 24 23 24 27 22 20 20 73 65 24 18 18 20 27 29 34 38 35 30 34 35 39 48 56 59 59 62 76 75 84 65 66 79 80 77 82
10 9 8 11 18 20 27 23 22 26 30 31 26 25 27 33 21 24 22 25 25 29 38 40 45 45 43 48 52 56 58 56 56 67 75 71 69 63 77 79 70 72 86 86
18 12 11 13 18 24 23 30 28 28 32 33 30 28 27 28 26 13 26 32 27 28 31 36 38 50 56 50 43 48 56 60 71 74 68 62 74 77 76 78 81 96 93 98
24 16 14 14 24 24 27 29 30 26 27 29 28 25 24 24 24 24 20 14 22 19 26 31 36 37 35 44 45 49 65 80 78 68 67 83 80 81 78 96 97 100 100 100
23 21 17 18 25 24 22 21 24 24 28 21 17 19 23 14 16 14 11 13 16 16 18 21 27 32 44 56 67 86 87 68 65 72 78 78 98 89 75 90 100 100 100 100
25 21 20 24 25 22 20 19 16 12 12 6 11 9 10 11 11 12 13 12 15 20 27 32 50 72 81 80 83 71 67 72 74 73 88 80 75 98 100 99 100 100 100 100
15 16 16 14 9 7 7 8 9 8 9 9 8 7 7 8 9 9 12 19 30 32 39 65 70 73 61 56 56 68 71 73 85 95 100 98 100 100 100 100 100 100 100 100
11 11 11 10 10 10 10 8 9 9 8 7 6 6 6 9 17 22 27 30 51 58 52 52 56 52 51 63 73 78 86 93 98 86 84 100 100 97 100 100 100 100 100 100
10 10 10 11 10 8 8 8 7 6 6 6 6 8 11 18 24 33 42 44 52 52 51 46 53 70 69 68 75 79 78 72 67 83 100 100 100 100 100 100 100 100 99 73
12 10 11 10 12 11 8 8 6 6 7 6 10 15 20 33 43 42 35 32 36 38 45 76 74 70 72 75 71 68 70 73 80 100 100 100 100 100 100 100 100 93 57 28
13 11 12 12 13 12 12 7 7 7 6 11 20 25 39 39 32 27 32 50 52 52 63 63 66 70 71 71 72 71 72 96 100 100 100 99 100 100 100 100 77 32 19 14
12 13 13 15 10 14 10 9 8 7 13 27 38 37 32 27 24 42 59 61 63 64 63 64 68 73 76 73 54 53 69 69 75 60 61 96 100 100 84 48 23 20 18 15

GFSCGP_500_rhum_027.txt.gz
RH
43 75 65 68 98 80 90 96 98 91 100 60 47 32 41 16 20 19 41 57 11 14 15 17 15 10 13 21 37 22 48 66 46 56 52 41 36 18 18 17 21 22 25 25
60 81 72 76 97 93 80 90 100 81 76 44 91 76 31 61 33 28 26 14 12 13 16 10 10 8 10 21 34 57 71 59 26 19 27 18 17 18 18 21 22 24 26 28
78 62 82 95 80 96 94 94 98 95 68 43 89 85 87 71 34 22 19 16 14 13 15 14 13 9 10 12 24 61 70 41 17 17 18 17 18 20 21 22 23 24 26 28
94 97 92 81 79 98 80 100 82 62 45 30 42 75 72 94 89 88 37 21 17 13 14 16 18 16 13 16 34 75 50 20 17 19 20 20 19 20 21 24 22 25 28 31
71 88 57 84 87 89 96 94 82 87 97 94 86 85 72 94 95 96 72 51 18 11 12 16 17 22 20 20 35 21 22 17 21 23 20 18 17 16 18 19 21 22 24 24
95 82 59 65 86 98 77 74 51 79 57 81 54 80 97 83 96 74 94 81 56 31 25 18 18 18 18 23 29 17 18 23 24 21 19 18 18 19 20 21 22 23 24 25
70 91 97 92 84 84 85 39 42 37 74 74 70 67 97 92 93 61 52 35 40 24 20 16 18 18 18 17 18 19 20 24 23 20 17 19 20 21 22 23 25 26 28 29
86 90 66 86 88 54 63 37 54 69 75 69 76 93 87 74 60 52 42 47 19 15 16 18 15 17 21 22 19 18 20 20 20 20 21 22 22 24 25 27 30 31 33 33
62 82 91 87 88 72 80 68 66 92 83 86 69 62 82 60 39 74 67 19 15 16 17 18 18 14 14 15 16 16 17 19 22 23 24 24 25 28 31 33 34 36 40 51
90 75 84 99 79 40 40 95 76 48 25 15 18 59 52 88 88 92 49 17 17 16 15 15 14 14 16 18 19 20 20 22 22 23 25 31 37 37 37 46 72 53 55 71
91 54 87 67 66 37 36 30 30 28 26 17 18 57 97 97 87 75 50 22 17 16 16 15 15 16 18 21 22 21 21 23 30 40 42 42 39 44 54 62 69 55 67 89
87 37 28 28 27 31 27 25 57 32 27 16 10 12 22 74 76 70 55 20 15 14 14 14 14 16 19 21 24 29 31 31 33 42 41 41 60 63 64 64 55 61 69 66
23 15 19 26 24 13 17 15 12 11 8 10 15 18 25 28 27 27 21 20 15 14 15 16 16 17 18 20 33 47 62 52 47 54 59 62 59 59 54 57 68 60 56 66
22 19 14 12 11 16 10 24 83 15 10 14 21 26 33 23 20 18 17 17 16 19 19 18 14 16 19 28 35 44 73 75 78 73 64 60 53 56 66 74 62 61 69 54
12 11 11 11 11 13 11 34 99 36 17 18 32 28 26 30 24 21 14 14 15 20 26 25 27 31 46 45 69 63 66 70 77 49 59 54 59 75 79 64 68 73 70 76
7 8 7 7 8 10 11 21 46 49 34 32 30 30 29 24 22 21 23 24 25 27 31 34 26 20 35 31 75 74 69 52 44 55 61 72 77 67 67 72 78 75 68 74
24 23 16 12 9 10 14 22 31 34 37 38 35 32 30 28 21 18 22 24 29 29 28 33 32 25 18 28 66 52 53 61 70 74 71 57 62 76 80 83 84 77 81 72
33 30 23 17 11 12 19 26 30 33 29 29 27 21 20 25 25 25 20 16 15 13 11 14 19 27 23 30 47 69 82 75 59 54 56 72 80 83 78 82 80 100 100 100
48 46 37 19 14 14 22 25 29 31 28 26 23 24 23 25 18 14 12 12 12 9 8 10 15 29 48 69 81 86 80 64 61 74 80 77 70 69 100 100 100 100 100 100
28 26 20 20 18 15 20 22 21 22 18 18 16 14 14 12 12 11 9 8 8 9 15 26 42 50 60 66 65 62 62 71 73 70 67 70 68 78 100 100 98 100 100 100
27 24 20 17 16 17 17 16 12 8 10 10 9 9 8 7 7 6 6 7 11 23 38 43 43 40 44 48 46 62 68 65 69 72 72 91 100 100 100 100 100 100 98 100
9 10 12 11 10 10 10 9 10 10 9 8 8 6 5 6 7 11 8 13 30 46 44 35 30 34 43 53 77 78 79 82 79 77 85 91 100 100 100 100 99 100 100 100
12 12 12 11 11 10 8 8 7 8 9 8 7 6 6 7 9 12 22 38 39 34 28 31 48 56 61 72 80 80 78 79 80 77 65 55 28 26 39 36 48 89 97 54
11 12 12 12 13 10 9 8 8 9 11 9 8 8 8 9 18 31 38 34 32 27 27 50 63 70 75 73 71 72 75 68 51 28 14 7 6 7 8 15 48 53 44 45
14 13 14 14 14 11 10 10 9 9 10 9 10 10 11 21 34 36 36 37 31 26 36 62 73 74 71 71 72 69 56 34 11 6 6 5 5 7 11 23 44 47 46 53
17 16 16 14 14 13 13 13 14 15 14 11 12 14 25 34 36 41 38 31 32 37 56 73 77 74 71 72 61 42 20 9 6 5 5 6 8 12 27 43 48 46 55 62

GFSCGP_500_rhum_033.txt.gz
RH
39 47 58 60 70 70 64 70 69 86 78 68 98 91 50 42 47 43 58 54 21 22 16 16 16 18 16 18 16 21 53 76 65 43 22 25 24 21 18 18 19 21 21 19
44 58 55 54 59 88 62 75 88 73 60 73 85 96 53 23 34 32 38 25 27 20 26 22 15 13 14 14 17 28 55 65 58 28 19 23 19 20 20 19 20 20 18 19
39 53 74 76 91 97 99 90 86 88 93 50 65 76 84 24 22 51 46 23 16 19 15 19 21 22 21 20 31 47 90 98 73 28 25 22 44 37 25 21 18 18 21 22
46 47 66 88 82 73 96 94 82 77 78 92 36 36 52 54 25 40 63 72 62 21 23 20 19 22 26 29 29 34 91 88 71 43 51 39 62 74 25 18 20 22 23 23
49 48 65 86 70 76 81 70 68 70 79 96 38 32 45 17 22 58 67 75 67 33 21 26 30 32 40 33 75 51 93 99 84 56 46 74 57 33 19 19 22 23 23 24
40 48 57 76 66 74 76 73 73 79 77 75 31 40 36 48 66 54 55 58 61 41 33 63 51 48 31 26 40 65 82 73 86 51 59 49 43 25 23 28 27 31 27 27
45 56 66 64 61 69 68 62 62 78 76 65 67 76 45 67 68 53 42 23 26 19 15 32 29 20 42 27 36 65 81 77 61 30 18 20 23 33 46 51 50 50 44 45
48 52 59 63 73 80 81 63 56 58 65 56 56 34 41 55 89 61 44 44 38 16 14 16 16 18 26 37 42 98 68 62 34 32 20 21 26 37 57 73 75 61 68 74
56 50 69 84 93 84 80 53 65 61 46 42 54 55 56 45 79 74 42 65 24 17 16 15 16 18 17 20 32 67 35 23 25 22 22 22 31 56 53 57 57 60 66 64
53 77 78 77 77 73 61 64 64 57 48 50 67 76 82 65 66 62 36 62 23 20 18 17 16 16 16 19 24 27 20 22 24 22 22 28 42 52 51 56 64 69 72 66
37 45 73 77 71 88 85 86 74 47 81 59 57 41 27 25 20 19 27 62 54 40 24 18 17 16 16 19 21 22 23 25 24 32 42 61 57 72 65 64 59 75 64 56
37 35 39 66 82 74 64 82 79 37 41 64 26 16 21 16 13 11 15 28 53 46 43 27 18 16 17 21 23 23 25 26 29 34 36 64 76 99 84 69 83 70 63 76
40 33 36 52 69 69 51 48 35 33 26 18 38 27 17 20 16 13 10 11 16 22 18 20 22 23 22 22 25 34 48 63 68 85 90 92 76 74 87 95 74 75 88 63
45 47 66 56 60 87 84 55 32 24 20 19 15 11 13 16 16 13 12 14 16 14 18 21 24 20 23 37 48 43 49 71 89 92 92 84 91 90 86 77 76 72 62 70
24 51 64 30 25 24 25 23 15 11 12 11 12 26 49 15 21 17 17 21 18 19 19 13 14 24 25 36 39 58 79 95 97 46 38 64 72 81 86 79 75 62 72 67
42 56 43 25 23 20 15 15 15 10 11 11 10 39 39 18 32 29 30 27 27 27 17 13 10 11 20 22 5 13 21 15 15 28 41 60 78 88 80 62 55 69 70 100
23 17 14 13 15 14 10 9 10 11 9 12 12 26 47 30 30 31 33 32 28 20 18 14 11 10 8 5 5 5 9 17 33 39 39 46 50 50 59 64 74 70 64 67
18 12 15 14 14 12 17 21 21 15 12 10 15 23 31 30 29 29 25 22 22 20 15 11 10 7 5 5 6 11 22 33 35 35 38 52 54 57 65 75 76 73 84 86
16 12 14 28 52 55 44 34 27 18 13 15 23 29 32 30 31 31 28 23 17 12 10 8 6 6 5 6 11 21 28 33 35 32 45 64 64 75 98 89 100 81 82 69
13 12 15 27 35 42 46 56 40 24 16 17 28 36 36 32 28 24 14 11 10 8 7 6 7 6 7 12 24 29 33 39 34 37 54 79 87 81 97 84 78 67 48 22
16 21 23 10 16 21 25 30 35 26 20 34 39 33 28 21 13 11 11 9 9 8 8 9 9 9 12 18 26 36 42 39 37 44 70 89 88 86 85 79 64 36 15 8
26 36 9 11 16 19 26 28 25 28 28 36 36 21 15 13 13 12 12 12 11 11 12 12 14 17 22 27 39 46 49 52 54 63 85 90 86 82 78 61 32 12 8 8
28 28 9 11 11 12 16 18 19 19 20 18 15 14 14 15 16 16 15 14 15 15 18 20 21 22 30 39 49 55 58 68 85 94 92 88 84 82 61 33 14 8 8 8
30 14 9 11 12 12 13 14 15 16 17 17 16 15 15 15 16 16 16 16 18 25 29 27 24 32 43 53 59 62 72 87 96 94 90 88 81 60 38 15 8 8 8 9
26 15 13 13 14 15 14 14 17 19 18 18 17 16 16 16 16 16 17 21 27 36 34 30 33 47 54 59 64 76 96 100 96 92 90 78 58 34 14 8 8 8 10 12
48 23 18 20 21 19 20 19 20 19 18 17 15 14 15 16 17 18 20 29 43 42 35 37 50 57 61 67 78 93 96 92 92 89 77 53 27 11 8 8 9 11 12 16

GFSCGP_500_rhum_036.txt.gz
RH
41 44 53 52 68 81 87 74 58 58 78 72 100 74 26 50 63 56 39 22 20 18 21 25 24 19 20 26 24 29 49 76 71 54 36 14 19 44 22 22 18 18 17 17
44 48 60 58 59 74 83 71 70 63 70 80 90 89 40 26 47 51 60 34 24 21 19 18 18 18 15 14 18 36 64 72 68 47 19 21 19 20 20 19 19 19 16 16
35 48 48 52 61 68 72 61 85 88 64 63 80 82 71 20 41 67 61 44 26 26 22 18 15 15 15 17 20 29 43 60 65 54 15 17 19 26 32 38 29 17 17 18
33 42 46 64 67 88 90 66 76 65 68 54 41 56 69 36 26 63 68 82 84 23 24 18 17 19 19 19 20 28 61 85 68 47 17 31 39 28 62 62 25 22 22 26
39 52 42 51 73 75 73 61 55 58 60 52 33 32 40 40 33 37 60 80 86 34 28 35 33 32 34 29 19 36 38 70 92 85 57 43 71 81 77 63 76 40 44 54
44 47 47 53 61 66 56 59 60 56 58 59 54 35 35 28 76 83 62 62 75 49 19 20 35 75 80 48 31 42 84 92 84 82 60 32 30 46 61 56 63 56 88 76
31 36 53 59 57 58 59 65 60 63 70 54 63 40 54 77 50 71 47 35 60 48 31 29 33 64 44 52 40 32 99 99 96 86 65 63 47 51 57 80 65 85 100 99
31 37 49 65 62 60 55 56 63 67 65 61 64 55 48 45 44 52 56 38 35 37 21 17 42 52 23 57 47 45 74 96 98 92 72 56 36 45 57 81 83 100 100 100
37 50 60 71 65 63 66 71 74 69 58 58 54 40 36 44 66 66 69 60 36 35 14 18 17 17 33 40 42 36 69 80 64 44 47 34 30 42 59 80 99 99 95 98
39 58 70 70 68 68 68 74 71 53 44 41 40 40 51 74 64 55 67 63 41 39 17 17 17 16 16 17 16 17 59 17 28 35 30 23 25 48 77 95 100 100 100 96
54 45 72 70 66 82 84 68 62 60 56 53 37 38 60 51 43 42 51 56 50 68 29 23 23 18 17 17 17 16 17 28 36 33 33 46 57 76 89 90 98 86 61 70
45 58 57 61 99 84 64 56 68 67 58 69 63 28 45 30 22 18 20 18 27 70 59 43 39 32 23 20 18 17 37 56 64 72 72 71 88 94 96 61 56 45 49 73
45 44 43 51 56 57 53 67 57 54 64 53 18 13 21 52 32 19 17 15 13 27 32 35 28 26 23 22 24 48 65 73 70 65 68 89 83 74 28 27 35 45 72 67
55 40 41 43 57 69 42 53 52 38 26 21 16 16 22 19 20 18 12 12 15 15 21 23 26 28 26 28 54 55 71 62 60 63 69 62 39 24 28 35 37 44 57 80
33 31 44 58 98 73 55 61 74 55 31 22 13 9 11 13 13 54 29 13 26 26 27 23 24 25 21 31 39 50 48 44 27 42 42 28 24 30 33 36 40 59 80 70
20 18 27 55 71 48 18 20 21 18 12 8 8 8 12 10 18 46 30 23 29 33 30 27 23 19 15 8 8 7 5 5 5 6 12 20 24 31 36 42 89 89 70 69
16 13 46 67 70 39 12 12 12 10 10 9 8 9 10 9 13 54 55 34 30 32 32 29 23 16 8 8 6 5 6 6 6 8 15 22 32 39 42 52 80 74 72 77
74 54 46 37 30 15 12 11 16 25 21 18 17 14 12 10 20 32 36 32 30 28 25 22 13 10 7 6 7 7 7 8 9 14 21 30 40 41 42 42 52 75 95 90
78 97 56 42 18 13 11 22 50 52 37 26 21 17 12 15 25 32 34 29 27 24 20 13 10 8 8 9 9 9 10 12 15 20 28 39 47 49 52 57 81 100 96 92
77 88 78 47 15 8 10 20 23 34 19 35 25 17 15 29 35 34 29 26 24 16 12 10 10 10 10 10 12 14 17 17 20 27 38 51 57 61 70 85 100 98 94 91
45 82 59 40 15 8 18 10 17 21 24 28 30 19 20 29 32 31 26 17 14 12 12 12 11 11 12 16 22 22 21 22 29 42 54 58 63 77 95 99 94 94 91 79
35 46 67 48 18 22 17 11 16 22 21 22 25 20 20 27 24 15 14 13 14 13 13 13 13 15 20 26 28 25 24 27 36 53 60 65 79 97 100 99 95 90 75 49
32 23 42 40 34 37 10 12 13 16 22 23 24 23 18 14 14 14 15 14 14 14 14 15 16 21 28 34 32 29 32 42 55 63 70 83 99 100 92 89 85 71 42 20
59 26 29 30 37 31 11 13 14 14 14 14 14 15 15 16 16 16 16 16 16 16 17 17 21 34 41 42 36 34 42 56 66 74 81 88 87 86 83 79 70 44 17 10
76 41 32 28 32 18 16 18 16 16 15 16 19 20 18 18 18 17 17 16 16 16 19 22 34 50 51 45 39 45 60 71 77 80 83 83 82 78 77 68 40 19 10 10
88 57 47 39 51 28 20 19 21 20 20 21 21 20 20 20 20 20 20 19 19 20 22 33 49 58 54 48 54 69 78 81 82 82 81 79 78 75 66 45 20 10 11 13

GFSCGP_500_rhum_039.txt.gz
RH
33 30 47 47 54 60 63 91 78 73 86 100 86 61 95 77 61 38 24 23 27 28 26 30 44 52 57 52 53 49 39 41 46 48 47 38 19 22 42 62 57 22 20 19
37 43 47 55 54 62 60 76 68 64 60 97 99 93 64 54 49 62 58 27 26 28 31 36 32 31 35 33 28 33 48 67 75 65 52 25 25 32 49 42 38 20 21 20
38 38 43 52 52 51 53 64 77 74 59 93 94 95 81 51 45 58 65 36 34 28 26 24 23 22 20 19 22 32 53 57 69 68 64 24 21 20 32 48 29 34 49 23
36 30 39 52 59 66 62 47 64 74 80 66 65 76 81 46 59 72 76 79 35 28 26 24 19 16 18 19 19 27 39 56 68 84 83 30 20 20 34 37 60 77 63 66
32 35 36 52 53 59 73 64 59 68 64 75 65 35 48 49 33 80 98 87 89 55 24 23 22 20 18 15 14 15 22 39 80 85 74 64 53 48 69 56 52 54 58 64
26 32 36 42 46 50 60 60 55 54 60 62 61 52 35 36 66 63 96 97 87 96 60 26 28 24 28 23 29 25 20 44 62 100 93 80 56 31 33 41 50 60 78 81
25 36 38 39 48 51 55 57 53 52 54 53 55 51 60 66 42 62 76 78 83 90 82 30 23 27 28 61 67 47 28 27 78 96 98 96 94 89 42 30 46 80 81 97
20 34 34 33 54 60 60 62 56 50 52 59 54 49 60 57 40 34 61 62 52 81 64 50 40 32 35 64 55 37 44 49 58 97 96 81 44 58 54 37 56 83 83 91
23 34 42 49 65 67 65 55 56 55 55 53 46 50 56 42 44 47 46 66 55 48 46 29 21 18 19 51 45 73 49 36 57 98 92 67 60 45 41 67 73 82 87 91
25 50 44 47 64 63 67 69 71 68 60 51 38 37 47 46 46 72 68 72 68 51 51 20 19 19 19 21 23 22 46 30 36 43 45 59 65 76 83 86 88 99 99 94
26 41 56 51 71 91 80 74 85 73 57 44 39 43 46 46 54 53 58 61 74 74 52 54 22 18 18 18 18 19 19 20 20 28 54 69 66 71 74 81 98 98 86 100
29 40 54 51 72 85 81 70 78 83 68 53 39 35 61 52 61 49 31 22 24 26 40 62 70 49 34 36 38 32 24 23 24 73 75 82 74 78 77 99 85 88 97 69
32 32 48 62 76 68 68 70 66 69 60 50 46 37 14 18 24 38 32 20 17 17 19 23 50 63 49 35 27 24 24 40 84 78 90 86 75 61 69 61 64 53 42 35
32 34 35 43 59 72 69 60 51 60 58 54 41 25 16 17 17 22 19 18 16 11 13 22 22 27 32 28 24 29 33 59 66 76 64 40 42 37 48 50 23 26 28 33
25 23 31 37 51 63 55 42 41 50 51 47 46 25 18 12 11 11 11 10 27 37 15 22 33 34 27 28 30 33 47 45 32 15 9 7 11 23 17 22 23 28 32 38
35 28 27 29 42 66 46 52 60 50 29 20 19 10 10 10 10 10 10 11 34 26 21 24 28 30 27 26 26 22 15 9 7 7 8 8 8 10 12 15 22 30 41 49
47 42 31 25 28 42 20 38 34 27 20 17 12 14 11 10 10 10 9 12 33 38 30 28 29 30 30 25 19 11 7 8 9 9 10 11 13 14 14 18 30 44 54 64
49 50 34 29 22 30 41 24 26 23 24 33 43 44 34 22 19 15 11 16 28 34 33 32 31 28 23 14 9 8 10 10 10 11 13 16 16 16 18 26 43 53 59 71
63 58 34 35 22 16 22 15 24 18 20 23 34 35 39 26 20 15 12 19 26 30 32 31 26 16 11 9 11 12 12 11 13 15 18 20 20 22 26 39 53 62 67 82
75 69 76 68 55 26 19 18 13 19 13 21 20 20 23 34 23 15 14 24 30 30 29 22 13 11 12 13 13 12 12 14 17 22 27 26 25 29 38 50 62 70 86 95
69 59 37 46 46 40 31 15 14 22 12 14 18 19 19 28 23 17 20 30 31 25 14 13 14 14 13 12 13 13 14 19 28 35 35 30 33 41 54 65 71 79 81 79
70 70 46 30 28 52 50 34 24 21 10 11 17 20 19 23 22 21 28 28 16 14 14 14 13 12 13 14 14 14 18 26 42 46 40 38 40 52 63 68 76 77 78 72
99 76 53 38 39 47 60 31 39 16 11 11 13 18 20 22 24 19 15 16 16 15 15 14 14 15 16 16 17 18 25 44 56 51 46 45 52 63 69 75 76 75 70 68
96 98 91 81 61 46 40 31 40 20 11 12 13 14 13 14 15 16 16 16 16 16 17 18 19 19 19 19 22 26 40 56 57 52 51 55 63 70 74 76 78 75 77 76
96 99 97 87 83 56 29 28 35 25 12 15 15 15 15 16 18 19 18 18 19 21 23 24 24 23 25 27 32 41 53 57 57 57 60 67 73 78 79 84 82 77 78 76
90 99 98 84 100 63 38 37 31 26 17 18 20 21 22 24 24 23 22 23 26 29 30 30 28 30 33 38 47 56 62 65 67 72 76 77 78 80 80 81 90 95 86 69

GFSCGP_500_rhum_042.txt.gz
RH
19 28 32 31 41 36 34 92 100 90 69 94 87 100 83 63 65 34 29 32 31 30 30 30 31 36 51 45 38 39 36 38 46 41 47 42 41 58 60 56 62 86 72 33
20 29 40 36 45 38 47 56 74 69 64 90 93 82 94 60 80 48 36 27 29 28 28 31 41 47 47 41 46 51 56 70 61 68 66 50 29 23 36 53 72 68 27 24
16 26 40 46 30 42 52 50 54 50 55 88 100 94 93 58 47 55 48 36 30 26 25 31 32 28 33 44 39 36 52 68 84 88 77 65 27 27 31 44 64 73 51 56
14 25 34 44 45 50 53 56 56 64 58 100 91 100 97 62 54 51 52 29 33 33 29 26 26 26 25 24 23 23 31 42 56 71 84 78 58 29 28 32 63 67 72 85
20 28 33 45 43 48 58 71 57 60 69 63 71 78 99 80 42 61 64 65 35 22 24 22 24 20 19 19 17 19 25 32 40 61 80 83 69 42 37 50 78 77 50 66
10 27 34 43 34 39 54 61 71 68 68 65 69 74 90 58 50 46 73 89 70 66 59 24 22 19 18 19 18 18 18 19 20 50 64 78 92 75 75 64 44 48 41 51
12 26 33 32 38 36 47 54 93 100 75 82 60 56 82 56 39 47 70 86 75 70 79 76 46 21 25 26 25 22 30 59 38 97 93 97 98 98 91 98 90 61 46 72
11 16 32 39 40 47 45 45 90 96 80 99 60 56 83 52 49 40 53 70 78 83 92 98 99 81 36 21 24 25 36 48 42 36 44 93 100 97 97 97 79 69 72 83
13 15 25 28 45 51 57 45 56 70 68 70 65 58 54 48 48 33 40 41 67 65 63 70 66 56 48 40 37 29 35 52 66 55 76 97 89 70 66 72 76 87 86 96
16 21 24 32 44 55 62 59 61 59 62 66 93 63 90 49 40 37 37 47 61 69 74 64 45 21 20 21 24 33 39 43 34 41 34 70 29 44 72 84 82 80 85 93
15 19 26 29 33 49 58 62 60 64 64 83 77 83 52 69 65 55 44 62 63 78 66 74 56 30 24 20 18 18 18 19 20 18 18 20 27 84 95 94 85 77 84 99
18 19 22 35 43 46 56 65 72 70 76 72 73 56 54 55 69 68 52 51 42 47 58 71 71 65 62 40 44 37 30 34 33 25 24 31 81 88 93 70 70 80 87 87
21 22 28 33 37 43 51 61 76 71 72 66 56 50 50 41 21 27 39 28 29 24 18 16 19 30 50 82 70 50 38 30 24 25 36 58 67 75 51 19 14 22 25 17
29 38 38 27 39 63 56 67 77 83 66 61 52 62 57 36 21 20 18 24 26 23 18 13 11 14 19 25 34 29 28 25 27 28 36 45 45 32 21 15 19 14 13 20
25 29 33 26 44 65 58 67 64 62 45 42 39 46 58 48 26 18 11 10 11 10 10 30 31 19 26 30 31 29 26 26 38 39 35 36 22 15 18 11 13 17 18 19
26 28 27 28 36 50 42 40 50 51 41 38 41 22 21 18 12 10 10 10 10 9 12 23 25 36 41 38 31 38 42 41 46 29 10 9 10 10 12 16 17 17 18 21
30 28 34 28 32 47 20 21 40 43 50 32 12 13 15 25 21 15 11 11 10 10 10 21 47 41 40 42 42 38 32 23 13 9 11 10 10 12 14 19 21 22 23 24
37 40 41 43 37 27 16 26 46 42 29 16 16 26 43 49 49 40 30 23 18 13 13 26 33 37 39 41 37 32 20 12 12 12 11 11 13 16 21 27 29 29 29 32
54 54 49 46 24 18 11 29 59 51 15 22 23 19 16 18 22 22 30 22 16 12 17 28 38 39 36 32 21 13 12 13 12 12 13 13 15 22 32 38 39 38 37 44
71 70 76 62 40 13 13 23 37 43 13 48 19 13 13 17 17 17 30 25 16 17 31 38 36 33 25 14 14 14 13 13 13 14 15 18 22 31 42 48 46 45 51 62
90 68 62 66 40 17 16 47 60 49 23 17 20 11 12 15 15 15 23 26 20 24 32 32 24 15 14 14 14 13 14 15 16 17 18 20 28 43 53 53 52 54 62 66
89 92 72 77 62 28 18 34 77 82 42 24 22 10 10 12 15 17 21 22 23 30 26 15 14 14 14 14 15 16 18 19 19 21 24 27 37 50 57 59 60 64 66 68
92 79 79 69 56 67 44 32 48 63 48 32 30 11 10 11 12 16 19 22 21 16 15 15 15 15 16 17 19 20 22 23 23 28 34 46 58 63 65 67 68 64 64 69
96 99 94 93 71 60 75 68 56 43 48 30 29 13 11 12 12 12 12 13 15 16 17 17 17 18 20 22 25 27 28 30 38 44 50 53 62 68 71 68 63 63 64 65
98 99 91 83 99 100 96 95 93 67 38 26 25 21 13 15 15 15 16 18 19 20 20 21 22 24 27 31 33 35 38 47 50 52 57 65 69 68 64 61 62 63 63 68
77 78 76 67 98 99 100 92 86 50 27 25 29 28 17 17 19 20 23 26 27 27 27 27 28 32 36 38 42 49 56 56 61 66 70 68 64 60 61 63 60 65 68 68

GFSCGP_500_rhum_045.txt.gz
RH
14 15 21 97 97 88 100 100 86 90 87 66 77 100 95 69 56 47 29 26 28 33 80 45 28 35 30 20 19 20 28 51 75 51 43 50 53 61 69 67 71 80 81 96
16 16 27 37 24 18 38 99 95 100 66 50 83 96 95 95 45 70 33 21 28 28 26 27 30 32 34 27 26 28 28 43 60 68 58 41 40 37 30 37 52 72 96 96
17 58 25 36 36 30 40 99 97 91 100 46 45 72 100 92 31 49 54 30 21 24 28 32 33 30 28 29 32 36 36 34 40 44 46 55 55 43 25 30 52 71 76 50
19 13 26 32 46 44 100 82 66 57 45 100 95 98 92 100 60 37 50 46 27 23 20 19 19 19 19 19 19 16 16 16 23 33 39 49 53 61 28 25 30 35 77 86
24 15 26 27 48 50 94 56 42 47 100 100 95 83 89 75 94 99 43 43 49 24 26 24 21 17 16 16 15 14 14 14 13 15 21 31 50 67 72 26 30 33 57 81
21 12 20 28 34 42 42 53 53 50 95 98 91 93 95 100 93 100 98 65 64 56 61 55 29 17 17 18 17 16 16 16 18 43 32 36 83 72 82 94 90 57 68 56
23 11 21 24 29 40 48 46 85 99 99 72 96 61 100 92 84 42 64 100 76 48 41 70 83 94 71 23 19 19 21 24 23 47 96 69 64 75 85 96 96 93 94 96
25 17 17 24 27 44 48 70 91 96 100 100 85 48 87 78 46 50 44 49 58 66 65 76 73 85 89 73 60 46 35 35 28 75 81 80 74 66 94 96 97 97 97 98
27 32 29 25 35 46 94 50 96 81 75 76 97 83 70 49 49 53 46 39 41 64 70 63 66 73 77 64 51 50 38 30 28 44 66 91 59 40 45 45 66 82 86 88
30 69 29 16 31 42 73 80 64 58 90 79 91 95 98 90 48 40 41 40 44 48 78 80 64 73 70 32 21 20 25 26 30 36 33 30 24 22 18 20 59 84 97 84
28 23 50 18 19 33 49 46 55 100 100 99 97 97 95 88 63 52 50 51 46 67 93 87 85 75 62 33 23 20 19 18 17 18 20 19 25 25 25 37 81 80 78 49
27 24 63 25 23 52 98 64 79 98 99 96 71 55 96 74 52 51 54 47 48 54 70 85 78 75 83 71 62 42 29 28 22 22 28 38 35 24 35 49 51 64 48 17
36 26 34 100 53 61 70 90 99 100 99 93 83 56 99 61 52 40 29 21 20 41 46 39 33 40 48 51 54 80 92 83 72 62 45 33 32 32 28 44 44 29 24 14
37 31 26 40 67 85 44 53 88 100 91 67 66 100 99 98 86 85 96 95 17 16 23 30 29 20 16 16 18 26 40 63 71 50 29 24 26 39 55 56 37 49 26 13
45 34 28 28 99 100 100 94 100 100 100 99 80 100 100 99 95 90 83 54 16 11 11 13 13 11 24 22 17 22 26 27 30 38 38 59 61 56 47 36 14 15 14 13
55 40 29 36 99 97 95 94 97 98 98 100 100 93 100 91 52 46 47 20 11 8 9 10 10 10 18 31 27 33 35 48 68 64 59 59 38 15 11 11 11 11 14 19
61 43 38 32 86 100 91 25 74 92 92 97 91 50 100 85 38 8 8 10 11 11 10 10 11 11 19 48 42 44 62 62 62 45 35 19 10 12 11 11 12 14 16 22
82 48 41 34 31 31 20 33 33 32 25 52 54 38 18 15 19 26 31 36 41 36 24 18 18 13 17 41 59 52 44 43 37 30 15 13 13 13 13 14 15 17 22 32
99 56 46 41 31 33 26 25 20 30 23 33 33 26 18 19 18 15 16 17 16 21 26 22 16 14 24 37 43 44 42 37 24 15 15 14 14 15 16 17 19 22 30 44
99 94 72 41 36 30 27 24 24 35 30 34 64 27 15 15 12 12 14 15 14 17 27 18 14 20 30 40 40 35 25 15 16 15 14 15 17 18 20 22 25 30 42 50
95 94 71 62 55 36 31 33 30 21 29 43 58 27 14 15 11 10 12 13 13 16 24 19 19 32 37 35 24 15 16 16 15 16 18 20 22 24 25 31 37 43 47 57
100 99 90 84 79 59 42 37 29 34 61 72 60 39 16 15 14 9 10 12 14 16 20 19 23 31 26 15 15 16 15 16 18 22 24 25 25 28 36 43 48 56 66 65
97 97 99 93 64 62 60 67 78 46 42 58 77 61 34 19 19 10 10 11 13 16 18 20 23 17 15 16 16 17 18 22 25 26 27 28 34 42 50 57 64 66 62 56
98 99 93 96 91 76 74 74 81 62 50 65 61 55 40 25 24 14 10 12 12 12 13 13 15 16 17 18 19 20 22 22 24 27 33 41 50 58 64 69 68 61 58 56
95 96 94 87 86 94 82 64 98 94 98 87 56 35 39 34 25 24 13 14 14 15 17 19 20 21 22 23 24 25 26 30 39 46 51 60 67 73 72 64 61 58 59 59
83 87 89 86 87 100 97 100 95 98 99 71 49 40 32 27 22 21 20 16 16 20 23 23 25 27 26 28 34 46 55 57 59 64 73 77 80 71 62 61 67 66 69 72

GFSCGP_500_rhum_048.txt.gz
RH
62 25 12 13 89 71 100 92 94 98 58 66 47 95 99 88 79 39 38 19 22 25 58 38 41 50 62 22 20 35 81 95 85 40 34 37 45 49 47 46 50 66 81 78
70 22 16 15 84 36 48 60 98 100 96 53 44 68 94 68 51 26 24 32 22 39 26 50 29 36 30 22 23 33 36 49 59 65 40 34 38 39 38 36 43 62 79 77
76 38 50 19 36 30 16 56 99 65 85 43 41 48 93 98 92 52 30 25 29 17 18 44 25 21 21 21 22 25 22 18 20 23 32 41 43 50 50 33 21 22 41 64
71 25 18 19 31 37 58 88 98 81 92 78 66 84 75 88 71 55 42 24 30 20 16 14 14 14 14 14 14 13 11 11 11 11 16 19 24 39 49 62 33 27 54 71
62 29 15 16 27 38 62 74 93 32 45 83 71 63 100 82 77 98 65 61 39 44 20 22 19 14 13 12 12 12 12 12 13 13 31 40 27 26 51 77 91 49 47 43
68 36 19 16 22 34 48 39 52 44 35 40 76 100 94 90 87 96 94 85 55 46 43 33 59 69 60 25 14 13 12 14 16 20 30 46 86 58 72 68 96 97 90 76
95 33 30 13 20 24 36 39 53 85 73 51 70 74 98 74 92 98 92 74 69 56 21 30 56 67 65 82 81 58 34 29 26 28 32 37 94 92 95 82 76 92 96 97
92 37 23 16 13 22 31 35 66 94 89 94 90 74 96 55 78 62 54 54 58 41 28 30 50 52 43 67 67 55 46 35 26 19 25 77 94 95 82 38 27 28 61 97
96 39 54 28 17 24 31 31 49 97 92 91 58 86 73 70 57 61 43 42 43 55 60 49 62 51 38 39 38 34 21 19 18 17 45 86 90 67 60 48 24 17 24 81
94 98 89 99 29 22 23 56 61 80 77 77 95 75 97 87 96 71 48 41 40 34 37 48 52 68 57 42 35 34 25 46 20 16 19 20 31 54 19 21 19 18 26 79
87 92 97 100 50 24 30 29 62 83 91 79 47 96 79 93 100 74 56 39 42 48 38 44 68 99 95 97 87 58 44 36 36 28 29 19 22 48 20 31 42 20 53 49
86 91 90 100 73 37 23 41 54 67 79 98 63 80 100 98 91 80 50 44 33 34 38 35 72 99 100 96 80 60 58 64 98 89 78 73 55 37 52 78 54 63 55 49
96 84 96 98 82 94 22 62 34 44 66 76 83 84 98 79 68 72 45 48 38 31 20 20 31 50 58 62 76 83 70 56 63 65 73 85 80 74 63 59 70 47 54 48
98 90 68 49 56 82 55 65 88 88 94 89 90 50 61 81 78 96 76 48 35 27 29 15 11 22 26 27 23 26 32 33 30 32 46 48 47 57 56 41 55 62 59 39
96 80 68 59 54 98 69 48 84 77 89 84 58 68 68 90 98 49 57 81 61 30 39 24 12 10 11 16 15 13 16 20 26 53 62 42 49 66 69 84 72 48 22 13
99 92 77 54 38 68 99 93 60 65 62 74 80 95 88 95 93 88 82 46 21 35 25 13 9 7 6 7 8 9 16 31 41 30 31 41 53 72 65 48 20 12 14 13
98 95 79 53 42 61 79 96 84 92 100 100 100 96 87 95 91 80 53 21 9 7 14 26 25 18 13 16 11 17 14 33 39 51 68 78 61 39 24 12 13 13 14 15
86 93 93 82 75 64 49 78 62 72 60 70 91 98 98 86 84 69 36 10 22 20 20 26 39 40 46 36 22 16 13 28 51 58 46 43 35 20 14 15 16 16 18 19
100 97 90 92 90 68 55 67 56 43 30 39 45 63 91 97 99 26 14 19 15 14 14 14 14 20 26 24 20 14 16 31 39 43 42 35 19 16 17 17 18 20 22 22
100 98 92 98 91 81 58 51 49 40 26 26 34 42 84 90 47 16 14 13 11 12 13 12 12 21 27 18 14 14 22 32 38 37 30 16 18 18 17 20 23 23 24 28
99 100 92 89 94 81 65 52 55 40 27 46 54 67 77 34 24 9 12 12 10 10 11 11 11 16 24 18 16 26 35 35 32 17 16 17 17 18 21 23 21 21 27 37
98 100 98 96 93 86 85 73 48 45 43 58 65 91 87 64 22 13 10 9 12 10 9 10 11 14 19 18 19 28 32 22 17 18 18 18 19 20 21 22 24 30 44 56
84 84 97 100 86 78 100 96 87 85 100 63 52 47 59 63 48 29 23 18 17 14 10 10 10 11 16 19 24 26 17 17 17 18 19 20 22 24 25 31 40 49 58 67
76 100 92 99 88 82 82 98 97 94 100 99 84 73 88 66 53 36 50 28 25 19 13 10 10 10 11 13 15 16 17 18 19 20 23 24 26 42 55 57 62 71 77 82
83 100 94 93 100 100 98 96 90 99 87 87 100 100 67 44 33 34 41 44 30 24 21 14 12 13 14 16 17 18 19 22 23 25 27 42 60 78 84 85 81 81 83 89
86 96 94 81 98 100 98 99 98 85 85 94 91 96 84 83 46 43 37 35 34 26 22 20 17 15 15 16 19 20 21 21 26 70 85 85 91 95 83 82 89 97 100 100

GFSCGP_500_rhum_051.txt.gz
RH
84 68 42 21 12 12 24 77 100 99 100 100 74 53 47 58 84 43 23 38 32 33 29 32 36 41 28 25 58 89 94 77 62 56 68 63 60 61 62 52 46 57 72 87
75 67 44 19 12 8 29 33 51 98 93 81 85 64 34 68 85 74 25 26 29 27 23 37 27 21 25 22 28 43 62 63 56 34 24 30 35 36 38 38 40 49 62 72
90 62 47 27 11 16 21 12 49 87 96 100 89 64 54 72 77 94 46 26 30 20 15 29 27 18 13 15 15 14 14 14 13 12 22 22 28 50 54 46 29 28 41 57
71 72 62 27 13 23 34 33 43 49 66 88 87 66 77 91 62 71 55 51 36 17 17 14 14 13 12 13 12 10 10 11 11 12 22 20 20 30 34 44 60 59 45 38
83 92 72 25 15 25 35 35 69 64 47 59 80 56 100 86 77 72 80 33 43 46 32 46 54 41 17 13 12 10 10 11 13 15 30 53 58 38 38 59 68 82 69 88
77 84 84 29 16 19 35 33 49 41 30 18 31 90 85 98 94 66 47 54 27 30 39 28 39 50 56 52 25 13 12 13 14 15 17 25 50 86 85 73 72 86 97 95
68 85 88 71 18 19 30 39 37 39 33 54 80 88 65 88 58 67 35 27 24 28 26 22 26 43 40 49 47 31 20 18 18 16 23 24 35 54 73 80 73 90 57 55
70 79 90 71 18 25 21 34 40 49 76 54 48 62 80 63 79 78 81 43 29 26 22 25 29 21 33 36 29 34 38 32 22 25 24 34 57 99 67 86 60 46 59 38
76 69 96 72 33 31 26 33 50 53 76 68 83 98 94 81 63 90 79 58 54 36 27 28 28 29 30 26 41 35 28 22 18 16 17 20 29 25 65 67 61 22 24 32
84 80 97 56 46 29 25 33 80 69 56 93 93 85 95 94 93 75 86 68 51 38 42 34 31 27 22 30 56 58 46 42 37 53 62 37 30 20 30 77 29 20 42 56
93 93 100 76 63 42 34 32 47 94 69 70 77 82 67 87 84 96 64 56 43 37 35 34 24 16 19 27 74 57 75 97 70 81 67 78 69 47 43 99 71 54 77 77
89 98 98 80 73 61 52 53 38 57 80 86 48 45 76 80 90 70 83 63 46 32 35 28 21 18 16 26 60 99 96 96 74 62 69 88 85 98 89 98 60 67 86 94
96 82 98 93 78 79 91 76 48 48 87 100 89 52 81 86 100 92 78 66 54 32 29 32 26 20 22 19 15 30 66 66 70 88 98 95 92 88 54 55 54 55 65 68
100 83 82 74 85 98 85 49 43 31 75 100 71 22 96 90 97 94 73 90 78 61 54 32 24 23 16 15 15 18 40 34 54 73 38 46 59 58 40 50 42 71 74 74
99 68 89 92 96 91 96 72 75 40 32 47 55 64 69 70 92 86 91 82 53 54 51 23 19 21 23 13 10 10 14 16 34 26 21 22 42 37 32 47 51 58 60 69
98 83 88 95 90 95 93 81 81 81 65 81 93 96 66 56 86 74 62 95 76 94 57 20 17 7 6 6 7 7 7 9 14 22 21 19 19 31 36 59 60 74 57 19
81 75 92 85 100 100 80 71 94 75 60 87 95 57 73 84 82 100 83 74 54 41 20 15 11 17 20 23 33 43 41 41 41 26 15 13 24 47 52 54 47 39 18 14
98 85 94 85 100 87 64 68 62 100 94 81 98 83 94 98 97 96 81 100 89 62 19 19 21 17 14 14 16 20 36 38 36 25 30 41 34 30 37 31 25 14 15 15
99 93 100 96 92 67 64 64 74 100 93 97 84 88 72 82 91 95 96 69 76 48 28 18 13 13 13 12 12 16 25 25 24 17 49 63 35 28 26 23 14 14 15 16
100 96 99 96 94 66 58 68 79 98 65 95 75 79 87 54 88 96 67 58 44 34 18 15 11 10 11 11 11 11 18 21 20 19 17 25 31 33 25 15 15 14 15 18
81 100 89 93 83 62 66 73 97 84 48 92 90 59 36 40 66 50 53 39 35 22 15 15 12 10 9 10 10 11 14 17 15 16 23 29 33 26 17 18 17 18 20 23
100 94 100 100 86 65 83 82 94 73 78 99 93 49 34 45 62 52 60 36 25 15 12 11 9 12 11 10 10 12 14 16 17 19 24 28 17 16 18 18 19 20 25 28
100 100 98 99 80 82 97 95 83 95 95 97 92 75 67 75 82 100 95 36 20 15 12 10 13 17 14 11 10 10 14 17 18 19 21 16 16 18 20 21 25 30 35 53
96 99 99 90 95 100 100 100 100 98 95 95 91 77 98 56 51 35 78 90 64 40 30 34 36 25 20 15 12 11 12 13 13 15 17 18 20 22 24 30 33 68 89 92
69 97 75 87 98 100 100 98 88 96 96 96 91 81 74 76 58 48 70 75 44 31 42 44 46 38 28 23 16 14 15 15 16 20 23 26 26 27 30 42 87 98 98 98
64 58 49 61 74 97 99 96 76 97 98 98 98 82 72 64 65 56 72 79 54 43 47 44 43 40 35 28 24 21 19 19 21 28 31 32 33 44 81 100 100 100 100 100

GFSCGP_500_rhum_057.txt.gz
RH
72 43 84 98 90 55 39 18 17 46 48 38 48 39 54 44 60 53 24 22 18 40 40 33 35 31 66 56 64 68 61 58 62 63 78 84 92 100 86 99 97 98 94 95
59 44 98 86 68 62 41 20 15 38 67 48 38 63 49 40 65 65 36 24 16 28 37 26 15 33 54 81 88 85 80 72 67 75 87 99 98 97 95 98 97 98 98 92
50 77 91 75 70 64 50 21 18 21 36 38 32 46 43 34 78 59 31 20 22 16 41 36 15 15 25 55 61 56 51 36 60 80 90 79 69 65 60 63 67 81 80 80
56 62 84 88 81 67 54 26 16 20 12 16 31 23 46 36 60 65 40 25 21 18 11 11 14 12 12 15 24 29 21 32 31 32 27 28 34 30 28 34 50 55 64 74
59 69 94 90 93 90 46 34 23 16 13 14 20 22 31 34 64 65 76 47 27 27 32 23 16 11 12 11 10 11 12 14 18 17 21 25 26 26 30 34 35 32 33 34
75 82 90 74 99 84 59 50 34 17 12 9 26 22 20 27 54 77 56 53 41 28 32 30 38 39 37 17 10 10 11 12 19 36 39 24 18 26 32 42 58 78 82 79
70 62 80 76 87 90 70 48 34 19 14 11 42 17 21 23 44 61 38 35 29 33 34 25 21 32 39 42 48 43 20 12 14 16 16 26 33 46 67 77 70 76 78 89
77 75 77 76 76 95 90 88 36 17 12 17 30 19 30 29 34 57 42 35 34 33 31 36 34 34 33 30 30 34 39 44 38 33 19 17 19 25 41 59 78 74 77 66
71 68 83 85 98 98 89 86 73 30 19 14 23 18 33 41 37 46 56 42 42 50 38 35 33 29 37 49 43 40 37 35 34 26 23 22 20 31 39 52 70 76 78 71
75 78 89 93 96 92 95 100 92 53 28 17 12 16 31 58 57 49 60 54 54 60 45 37 32 31 48 48 55 64 67 63 46 38 35 26 21 18 17 28 44 78 66 84
68 74 86 97 89 92 88 82 88 61 43 30 19 14 57 60 65 64 51 39 40 62 41 36 29 29 24 38 32 68 86 90 90 99 97 96 74 76 82 79 75 80 50 61
33 42 67 79 100 95 100 95 100 85 53 43 29 13 42 56 64 68 70 53 61 50 48 43 27 29 32 28 24 21 44 72 95 89 93 97 97 93 97 98 98 98 98 97
26 28 30 73 91 95 95 93 89 87 56 38 35 24 34 43 46 63 38 36 38 52 54 52 38 43 33 35 34 28 20 25 40 56 87 84 92 90 68 40 71 96 95 95
34 35 37 34 77 89 98 96 89 81 60 48 43 38 17 24 40 39 47 67 61 70 70 62 60 48 49 53 34 24 22 21 17 13 32 38 46 71 66 54 50 82 96 94
28 27 22 26 58 84 83 100 99 82 68 62 54 52 31 26 32 30 86 97 68 78 62 59 80 52 70 59 62 26 22 27 20 12 7 7 14 39 74 57 63 60 93 77
100 43 12 16 34 81 92 72 77 70 77 78 77 58 57 41 34 27 45 84 59 46 46 52 58 56 31 83 79 41 10 13 19 20 24 29 31 45 57 73 72 75 68 76
57 99 74 28 56 68 52 48 74 77 64 73 79 74 71 60 33 22 32 89 74 72 72 64 52 71 49 69 62 51 17 22 17 16 15 16 20 29 65 63 81 85 84 85
85 40 100 76 86 83 26 52 72 91 84 82 81 81 90 77 53 24 38 33 65 71 71 44 62 84 60 55 53 26 20 15 14 14 18 25 25 29 36 48 53 54 62 63
42 26 100 100 100 80 53 64 78 92 84 100 97 92 99 93 79 60 42 42 54 78 50 65 71 90 88 43 29 22 20 14 12 13 28 25 22 33 44 53 61 70 83 89
8 36 96 96 100 96 51 99 100 100 74 98 92 100 89 90 77 80 64 51 74 58 56 78 84 87 92 56 31 22 19 15 12 12 20 31 34 24 34 32 35 61 79 62
27 19 9 43 42 64 73 100 97 100 38 79 78 84 76 83 79 100 95 100 90 79 87 86 88 76 47 42 25 37 23 18 14 13 14 15 25 13 14 16 16 23 36 19
25 28 25 10 15 32 59 72 95 91 92 93 100 98 76 74 71 74 87 98 100 100 95 77 62 46 37 34 32 28 30 21 14 13 14 16 16 14 12 11 13 14 14 16
29 27 30 32 24 11 20 73 98 100 73 100 100 88 87 85 83 78 82 86 89 99 99 96 72 42 38 42 40 40 35 28 18 17 25 39 42 33 20 14 13 12 13 14
32 37 29 33 20 17 32 52 82 99 100 100 100 100 90 85 82 82 81 82 98 99 87 82 62 52 74 72 86 80 69 57 37 42 43 44 42 45 38 26 20 17 16 16
30 31 36 28 29 32 25 86 98 100 99 100 98 95 98 96 96 96 99 99 100 99 100 99 93 79 53 51 67 96 95 95 84 78 72 71 72 67 48 39 32 27 24 23
35 31 37 30 44 72 35 92 83 97 98 98 91 93 99 98 98 98 99 98 98 96 95 96 98 97 96 95 89 91 97 96 85 95 98 98 96 95 93 74 50 45 45 51

GFSCGP_500_rhum_060.txt.gz
RH
52 46 48 100 90 79 76 75 51 25 22 18 34 57 61 41 30 53 47 22 23 34 40 34 32 32 64 58 68 70 59 74 58 44 58 62 80 81 78 100 98 100 97 96
56 38 81 97 84 80 73 75 59 25 23 14 28 34 40 36 35 50 55 29 24 18 39 33 16 36 62 87 85 71 62 54 64 64 69 58 72 97 81 93 87 97 96 97
58 47 94 90 86 76 79 72 54 26 24 14 14 16 38 35 37 57 47 23 23 16 30 48 18 13 38 65 70 72 78 75 66 79 75 65 72 79 79 82 92 99 98 96
63 57 73 77 64 81 86 83 57 30 20 16 16 10 28 33 47 57 37 26 26 17 15 11 21 12 17 41 47 37 37 34 54 71 98 92 91 94 94 96 97 96 88 90
68 60 69 86 76 88 93 91 75 42 26 18 13 11 22 28 40 54 49 37 26 26 19 28 18 13 12 10 15 28 25 23 28 31 32 39 38 35 36 49 56 56 59 80
90 74 83 86 84 90 97 89 74 58 39 26 19 11 16 23 49 43 50 50 41 39 27 30 34 28 11 10 10 10 10 11 18 18 24 30 32 33 35 37 37 42 51 57
91 66 73 88 83 78 72 91 84 63 53 42 28 16 19 16 38 38 41 37 21 26 31 31 26 31 39 40 33 24 14 11 11 14 22 29 27 24 34 31 46 47 52 50
92 75 69 85 82 82 82 97 100 81 63 53 29 18 24 20 20 34 49 30 24 23 32 34 33 40 30 34 39 43 46 33 22 22 21 18 18 29 40 61 70 58 66 67
94 92 87 87 99 96 92 90 100 90 83 78 52 19 13 21 28 39 40 41 41 36 32 32 34 36 34 36 38 35 40 42 40 32 28 26 22 21 24 31 42 62 67 65
83 92 95 98 96 96 99 100 97 88 77 75 57 32 18 27 31 40 52 46 44 47 47 43 34 32 34 44 46 49 58 60 56 48 44 38 32 27 25 21 28 30 62 67
73 79 85 98 94 100 100 94 89 84 81 71 61 46 22 27 24 45 50 54 44 50 48 48 31 28 29 33 39 42 52 71 82 84 90 90 77 95 66 41 31 68 58 64
70 66 64 82 99 99 98 95 100 100 90 87 69 44 38 36 36 52 62 49 45 49 39 48 33 29 26 28 26 28 50 51 64 81 88 94 99 96 98 92 97 96 100 100
79 69 61 73 83 82 83 81 77 81 75 57 70 59 57 62 40 77 66 64 55 42 41 47 47 55 59 32 31 36 32 27 30 48 56 59 77 91 82 97 95 75 46 74
25 49 57 60 57 69 75 79 76 76 66 67 68 70 66 56 56 44 52 73 49 59 48 47 44 51 62 55 39 42 39 38 31 27 22 17 16 40 46 47 79 87 70 65
19 12 17 28 35 62 65 65 86 84 81 81 81 81 74 60 73 59 53 54 67 69 74 56 65 69 56 60 53 47 40 42 38 18 24 22 11 8 11 19 48 85 90 62
44 29 30 42 32 42 60 89 94 91 80 57 68 69 81 74 73 60 42 45 36 31 94 100 60 48 47 60 62 41 47 66 57 13 8 16 21 21 24 26 43 73 79 77
98 74 42 29 23 11 19 43 76 94 96 82 74 75 77 76 74 74 68 62 47 39 60 85 86 61 71 46 62 60 74 69 62 50 21 17 14 14 14 15 33 47 68 78
83 78 74 97 87 64 43 27 40 45 73 87 90 93 100 98 91 92 88 86 69 46 44 57 72 87 76 66 66 88 76 64 50 40 18 14 13 18 30 34 37 55 72 77
100 100 99 80 62 85 100 96 50 39 46 84 90 74 62 83 83 91 100 98 93 70 60 49 53 86 99 83 77 71 90 64 40 31 20 15 12 12 27 45 35 40 54 69
32 93 100 92 95 69 34 98 96 62 17 80 84 82 82 92 65 81 100 99 98 99 100 92 96 88 80 85 93 65 46 37 42 36 23 20 14 14 23 33 28 28 23 26
20 10 12 21 38 37 19 16 100 100 68 76 86 82 88 79 100 100 78 90 97 98 97 100 100 100 98 97 100 100 92 50 48 45 29 21 18 14 16 15 19 17 14 14
25 26 24 27 32 13 10 13 38 82 94 86 85 92 72 73 74 90 72 66 88 98 96 100 98 100 100 99 100 99 73 52 50 48 35 29 30 17 15 14 22 37 39 28
31 34 31 28 18 18 20 22 22 22 78 80 73 80 63 70 61 47 50 85 84 94 97 95 92 90 98 100 99 100 100 94 64 64 53 44 41 37 25 28 35 39 43 45
44 45 32 22 18 21 18 18 28 24 31 50 50 90 89 97 81 64 60 61 92 99 97 88 99 96 81 90 94 93 79 72 100 100 96 82 59 66 74 69 75 82 78 70
45 36 28 22 21 19 20 18 16 31 26 17 23 53 100 93 71 92 95 91 88 84 89 99 96 98 83 79 93 91 95 96 96 85 80 76 94 96 91 85 96 100 100 100
40 38 36 30 26 25 22 20 18 21 26 26 29 36 86 92 98 100 98 98 95 98 100 100 100 94 100 96 98 96 99 99 99 96 97 97 96 97 98 99 99 100 100 100

GFSCGP_500_rhum_063.txt.gz
RH
76 56 41 66 86 90 78 70 64 77 68 40 18 18 24 37 59 50 40 43 34 23 21 36 27 26 46 56 52 51 53 87 50 81 50 52 76 94 97 98 95 98 95 96
70 48 58 89 85 76 68 60 71 85 76 43 22 19 30 45 66 52 40 35 47 23 20 33 34 15 42 70 60 67 65 56 57 81 50 45 74 86 93 95 82 89 96 97
75 75 65 94 92 74 64 70 90 91 73 51 25 17 24 35 65 49 47 50 28 21 19 17 28 14 28 56 70 79 73 64 52 71 80 70 80 98 90 85 91 96 97 97
86 85 57 76 76 67 48 82 97 83 74 60 36 16 18 20 41 42 57 30 22 20 16 14 11 14 12 34 46 38 36 42 60 67 70 99 95 98 87 88 97 98 98 94
82 89 60 71 68 86 71 100 86 76 65 57 44 22 25 15 32 49 56 45 22 20 18 22 28 12 13 10 16 32 36 24 28 35 86 96 96 92 92 96 97 98 97 97
96 94 80 91 88 92 81 93 73 69 67 60 50 30 32 18 31 39 48 47 39 24 20 26 31 34 13 10 10 9 8 10 17 20 26 29 35 40 43 53 51 61 70 73
94 86 92 93 85 68 70 78 69 62 66 66 61 44 25 31 24 31 41 44 46 40 20 24 30 25 34 34 23 15 11 9 8 9 11 15 16 19 21 25 27 29 36 58
98 95 82 89 91 88 83 84 83 78 78 91 78 48 22 28 23 35 34 50 40 27 23 28 28 26 24 32 36 35 35 31 20 16 16 16 19 26 28 39 31 36 43 41
99 92 93 98 98 99 94 76 87 89 82 81 69 57 42 21 29 29 38 47 46 29 26 27 28 32 29 34 31 28 31 30 29 32 35 34 25 19 22 24 41 50 53 56
96 96 97 99 94 90 88 100 96 86 68 69 69 62 65 30 25 27 41 48 52 39 34 34 34 36 29 29 31 39 40 46 45 45 40 38 32 28 24 22 24 34 55 70
74 81 97 97 91 97 100 88 83 78 67 67 71 63 78 57 22 35 46 60 53 50 46 46 48 48 37 31 30 37 42 50 65 66 67 67 70 73 88 98 94 35 30 34
89 97 94 97 98 96 96 98 100 98 92 88 79 63 68 85 35 25 48 51 72 67 67 52 41 54 37 31 31 30 26 26 43 58 71 78 84 83 92 96 99 100 98 88
96 86 98 96 95 97 92 95 88 84 82 70 71 62 65 94 92 40 34 59 78 84 68 67 47 54 44 60 65 55 39 34 31 35 44 44 50 59 70 86 78 82 79 76
96 97 98 98 99 95 94 99 97 90 82 77 67 75 73 85 99 90 45 58 68 73 81 78 70 59 66 70 57 55 50 44 43 39 34 30 26 24 25 26 47 49 58 83
42 40 65 95 98 94 91 92 97 87 78 76 80 82 79 82 97 99 92 54 49 52 48 48 64 79 86 62 64 76 60 56 59 48 44 42 20 25 25 16 9 10 14 42
80 65 36 30 71 98 100 78 64 66 89 96 100 92 91 91 97 96 96 90 77 38 29 39 48 61 64 78 73 73 68 66 53 58 59 60 55 24 13 19 19 21 26 43
99 100 84 51 24 25 41 50 60 82 100 100 100 100 99 99 96 86 97 98 99 73 61 55 38 40 86 94 76 82 74 69 72 66 72 65 59 47 25 17 14 14 16 18
99 100 100 99 67 28 40 38 65 70 75 79 86 81 75 71 84 85 84 99 99 98 97 85 79 48 34 67 78 79 60 74 83 86 71 69 60 38 24 15 13 15 22 32
100 77 92 99 100 93 59 51 47 49 68 53 50 58 64 52 57 85 98 97 90 87 88 92 92 90 80 69 80 87 65 92 86 85 65 51 50 40 24 16 12 12 17 32
72 80 54 33 41 66 98 89 99 100 100 95 92 52 36 42 47 76 82 70 79 76 100 97 98 91 98 94 93 98 83 74 96 90 98 97 55 34 25 21 17 13 17 22
15 15 15 17 33 77 75 91 96 79 55 64 58 81 69 57 49 72 86 80 69 76 84 96 97 99 100 98 100 100 99 83 90 100 100 97 56 43 37 42 23 26 18 15
41 28 16 11 9 20 33 38 46 34 21 56 51 40 72 76 84 68 75 86 92 88 75 72 70 84 95 99 95 97 100 100 95 94 98 89 71 69 60 68 78 54 45 26
44 38 32 24 22 20 22 23 22 22 22 13 9 8 10 68 80 82 81 78 68 72 76 65 63 62 85 86 86 92 100 97 98 95 79 83 97 96 100 96 89 74 66 65
38 33 26 26 26 27 22 19 19 16 14 14 13 18 17 27 75 80 77 74 56 78 96 74 64 93 93 85 75 70 72 75 92 92 90 94 99 99 99 90 85 89 96 97
43 37 33 30 32 32 22 19 18 16 13 12 13 12 14 19 24 66 65 77 100 99 98 99 92 94 97 89 82 96 90 75 74 71 80 95 99 95 98 98 99 96 97 96
48 44 40 39 39 37 32 26 23 19 18 14 16 14 12 17 22 47 60 39 89 93 88 96 96 100 99 87 81 95 98 100 97 98 99 100 97 100 99 99 97 98 98 98

GFSCGP_500_rhum_066.txt.gz
RH
88 91 72 65 72 93 88 81 68 77 81 69 66 42 18 19 30 49 53 52 41 40 25 18 35 21 31 54 46 36 40 84 90 97 97 96 97 97 95 96 95 96 98 96
84 68 92 75 93 91 89 73 63 75 86 78 68 45 24 22 26 42 71 58 45 45 27 17 17 26 17 62 56 46 50 65 69 44 61 55 68 95 94 97 96 96 96 97
76 92 97 75 100 96 95 82 81 82 81 86 64 47 25 24 18 37 55 43 50 47 18 17 11 20 13 43 68 70 60 61 74 45 67 67 48 57 98 86 94 92 85 90
97 99 95 74 98 100 91 98 82 74 75 88 59 42 26 32 21 21 34 35 44 26 19 14 12 10 19 17 44 40 59 64 61 60 63 66 53 54 88 89 94 88 96 92
90 100 93 75 94 99 94 100 89 81 66 66 74 56 26 22 17 16 37 25 47 25 18 15 18 15 9 14 11 19 29 28 30 53 68 67 69 70 75 88 81 86 96 96
85 93 88 86 97 100 99 100 93 81 76 50 66 64 41 19 16 18 30 33 44 44 45 23 21 29 21 10 9 9 8 8 15 22 39 76 93 96 97 93 79 88 94 97
99 96 88 88 96 97 95 97 86 86 68 51 64 75 48 26 19 21 30 31 43 41 50 42 23 27 28 30 30 24 14 9 7 7 12 24 34 43 50 49 34 34 71 95
97 95 90 94 96 99 99 92 85 81 78 78 71 70 47 36 24 21 21 31 43 51 32 21 23 26 26 24 24 24 25 28 25 12 11 11 17 20 20 26 24 28 25 31
98 93 98 97 97 99 92 76 97 92 83 86 70 56 74 42 25 24 24 36 39 51 29 26 22 25 26 28 30 30 30 32 26 26 28 27 23 15 17 26 30 39 41 45
98 97 95 99 96 92 83 99 93 88 98 89 92 57 88 89 37 22 30 42 39 51 44 32 30 30 32 41 31 28 30 31 36 39 34 29 28 25 22 20 20 21 27 32
98 96 98 94 88 93 89 91 97 89 89 88 100 82 84 97 72 25 32 35 41 49 50 40 36 39 44 44 38 30 30 37 39 33 51 54 53 51 35 65 53 82 75 44
99 98 100 100 95 100 99 98 99 99 97 92 96 100 70 97 89 35 39 43 50 60 53 51 52 57 51 43 39 28 29 29 27 26 30 34 54 69 82 88 83 86 88 83
95 91 99 91 88 95 99 96 93 95 93 80 82 85 76 96 96 65 37 51 66 62 68 75 67 66 52 57 42 40 55 49 41 37 30 29 29 29 27 24 33 56 80 91
100 99 82 76 94 95 97 100 100 100 100 97 89 88 86 93 94 96 49 37 67 84 87 90 78 60 58 57 48 55 62 60 50 42 32 36 34 31 26 23 21 21 24 37
87 98 100 96 95 95 97 98 98 98 99 96 94 84 81 88 92 87 97 56 41 83 94 82 79 72 59 37 54 55 59 48 53 62 68 54 42 40 35 20 18 22 20 17
100 91 83 100 100 100 100 98 97 98 98 99 98 96 92 92 93 97 93 97 72 50 64 96 94 96 72 49 46 47 49 56 56 49 52 60 53 50 41 38 29 11 15 17
99 99 83 64 59 75 99 100 100 99 98 97 97 85 84 96 92 97 95 92 91 62 56 54 54 72 71 66 70 72 60 72 76 65 66 61 68 75 72 61 51 44 27 18
100 98 100 98 78 72 54 56 80 86 89 98 99 100 98 90 84 70 71 71 85 97 86 83 73 55 42 53 66 100 96 98 92 93 73 57 75 96 79 77 72 59 34 19
100 100 94 100 100 100 100 99 70 57 75 96 94 82 72 67 54 42 52 57 62 74 95 98 96 90 86 96 76 64 100 100 100 87 71 78 96 83 83 56 54 50 45 26
79 85 99 93 100 100 100 98 100 100 92 72 71 70 74 72 71 44 30 25 46 52 57 63 84 97 91 98 92 91 85 77 96 96 86 91 88 98 88 81 69 51 37 36
47 42 52 95 80 86 91 97 98 100 93 80 79 82 83 86 82 89 72 56 40 39 42 47 64 90 97 90 99 97 87 82 86 98 100 99 99 99 100 93 94 42 40 51
18 15 12 16 38 58 47 45 45 45 39 73 75 76 73 53 38 36 43 79 85 60 43 39 51 59 84 86 88 91 97 95 96 100 99 97 91 94 98 97 100 100 99 94
58 33 35 22 18 13 12 7 7 8 22 57 63 63 46 16 9 6 14 32 49 78 73 67 54 50 74 86 80 70 67 75 97 96 100 99 100 100 99 100 100 97 97 95
50 50 39 38 34 26 23 22 21 20 18 16 15 14 12 11 10 12 13 12 6 12 70 78 76 68 62 65 60 61 60 63 81 89 94 97 98 98 95 98 99 96 97 99
45 47 42 37 31 29 25 25 24 19 16 13 12 11 13 10 9 8 8 10 14 15 24 76 79 68 62 79 87 80 89 96 98 100 90 82 94 95 94 94 98 100 100 100
57 49 44 42 40 36 32 31 32 23 21 22 21 19 17 15 14 11 9 9 9 15 25 28 57 60 77 96 100 91 80 83 100 92 91 90 79 81 84 79 95 97 100 99

GFSCGP_500_rhum_069.txt.gz
RH
94 78 51 53 65 73 62 93 100 100 100 64 67 80 88 67 53 14 19 18 26 28 28 36 18 18 18 42 46 41 33 43 46 94 87 90 96 95 95 95 98 97 97 97
97 70 81 90 93 96 83 80 84 99 100 67 69 71 83 45 71 37 16 17 24 21 34 34 16 12 16 37 52 50 35 43 80 84 94 98 97 98 94 98 98 98 93 90
96 92 100 94 97 98 91 89 90 100 100 61 61 70 86 48 31 36 15 13 21 25 33 20 13 11 16 30 49 59 63 51 65 58 42 45 60 67 85 96 95 94 96 96
97 98 100 95 94 98 93 98 100 97 93 60 77 74 93 84 97 59 13 11 20 29 20 19 13 12 9 18 41 42 57 68 67 66 70 56 55 50 47 54 91 96 92 92
96 100 98 96 96 98 90 96 100 99 89 75 57 60 86 80 90 78 18 9 18 38 19 28 17 17 12 9 12 20 35 25 29 35 62 50 61 83 61 46 72 81 66 84
100 92 84 94 99 95 98 99 99 95 94 70 59 68 87 98 99 45 21 12 21 45 39 42 26 19 18 12 7 8 8 16 13 18 33 60 53 68 72 63 64 83 86 85
100 96 94 98 94 97 91 100 100 96 92 58 88 71 68 100 67 31 13 13 20 45 52 45 29 21 21 22 25 23 15 9 6 6 10 36 77 77 84 80 90 77 77 87
97 97 98 99 92 98 98 100 91 87 97 74 98 71 84 96 78 32 16 14 18 35 52 45 25 23 20 22 23 22 22 22 23 18 9 7 15 29 41 48 52 50 35 42
100 99 98 96 98 97 94 85 98 97 98 91 100 78 76 93 61 40 24 15 20 28 39 45 25 26 18 18 21 21 26 28 30 28 22 20 13 10 12 15 18 19 20 27
98 98 95 98 97 92 92 100 95 97 100 99 99 100 100 80 91 61 28 24 18 29 38 44 33 30 24 24 36 35 26 21 26 30 31 32 25 24 21 16 16 18 23 33
100 97 100 97 84 99 97 93 94 100 100 100 100 99 99 85 97 92 53 22 23 30 39 41 44 35 30 35 38 36 27 21 23 30 32 39 43 45 42 31 24 24 22 34
100 98 99 100 100 99 98 98 94 98 99 89 100 99 83 88 96 84 68 30 32 36 40 38 45 43 39 36 46 44 35 23 22 21 23 23 32 35 56 60 57 62 58 63
95 91 99 100 94 97 97 97 99 100 98 98 99 96 95 80 74 98 83 72 52 49 46 45 46 51 50 49 46 49 42 32 32 31 30 26 26 23 26 32 36 48 41 32
98 100 98 98 100 100 100 100 100 100 95 97 98 100 97 91 89 95 94 65 72 78 52 59 54 48 55 54 52 55 46 42 41 50 50 43 37 30 24 26 22 23 22 19
97 100 100 98 98 100 100 99 100 100 99 97 100 98 99 95 87 94 93 88 55 51 68 71 74 64 74 67 59 60 50 47 48 56 58 52 50 52 48 37 35 33 24 19
99 95 100 100 100 95 96 100 99 98 99 97 97 96 100 98 93 92 94 97 98 65 86 52 52 80 87 95 87 73 65 53 52 48 53 60 50 51 49 45 41 40 41 33
100 100 99 99 100 98 96 97 97 97 98 98 100 98 98 98 96 95 92 96 96 98 89 58 78 94 90 94 87 91 82 68 54 53 61 68 76 63 60 62 48 48 50 52
100 100 100 99 97 98 100 99 99 99 99 99 98 99 99 97 97 89 91 89 95 96 96 98 68 66 82 87 93 96 91 74 73 71 76 76 86 84 69 68 76 89 79 65
100 100 100 100 100 100 92 87 84 95 95 82 84 96 99 98 96 87 79 73 63 80 87 97 89 72 69 65 65 67 58 58 63 66 95 99 99 92 83 76 78 75 77 75
100 100 98 100 100 100 100 98 100 99 100 84 66 85 72 100 82 75 59 65 56 36 32 58 88 97 96 94 99 94 69 62 93 98 75 83 100 98 99 88 85 75 48 48
95 100 98 100 100 100 94 99 100 100 98 99 97 88 88 92 96 97 89 63 46 36 31 30 23 43 88 90 92 98 97 97 97 100 100 92 90 91 92 99 100 93 89 91
32 19 33 65 94 95 85 90 99 97 96 95 97 90 96 89 80 72 75 76 73 65 58 57 48 43 25 50 60 55 86 93 94 98 99 96 97 100 100 95 100 100 99 96
56 29 22 29 33 43 50 64 80 77 70 66 58 60 68 53 31 35 54 46 47 35 24 14 12 19 45 39 38 56 57 70 85 78 85 96 96 98 96 100 96 100 100 100
96 82 58 90 52 69 58 33 37 17 10 8 6 6 8 15 22 21 16 12 10 10 10 9 7 6 31 39 56 60 52 69 83 88 85 89 83 86 94 100 99 99 98 97
82 65 70 88 100 64 46 33 23 19 18 19 18 17 16 13 10 11 10 10 8 7 7 7 7 9 12 13 16 64 77 67 64 70 75 85 81 79 91 94 100 100 98 97
69 60 58 65 57 49 50 45 31 26 24 21 17 16 13 14 15 18 18 16 14 13 11 8 6 6 8 15 24 32 66 76 65 71 66 88 82 84 89 96 100 100 97 92

GFSCGP_500_rhum_072.txt.gz
RH
33 45 40 98 72 62 54 50 52 92 86 95 86 71 82 89 80 70 33 19 10 10 17 24 31 17 13 17 22 35 36 31 63 26 76 88 85 86 83 80 86 94 94 93
37 37 52 77 99 86 61 59 78 94 99 97 100 71 75 88 88 83 66 25 13 8 16 29 20 14 12 16 23 46 38 32 31 42 67 76 92 94 96 95 96 95 91 92
52 61 90 99 97 94 66 87 96 83 100 99 85 72 71 80 84 76 97 40 24 8 19 29 16 13 10 16 28 41 50 42 42 71 69 52 77 96 95 95 93 91 89 92
71 82 80 93 89 97 82 91 97 84 99 92 100 74 94 88 86 65 57 34 17 11 21 19 14 15 14 10 16 37 44 50 52 55 60 46 33 48 54 61 71 78 83 85
93 100 89 90 98 98 76 99 95 99 97 88 80 74 70 94 99 92 91 64 9 12 24 16 18 17 17 10 9 11 38 33 42 46 51 49 38 32 42 45 44 55 71 79
79 98 91 91 91 95 99 97 98 99 98 85 66 73 60 83 99 99 100 69 13 14 25 24 23 19 18 18 10 6 8 18 19 21 25 31 45 46 47 68 65 45 53 88
65 96 91 98 96 99 97 98 98 97 89 60 63 77 61 90 94 75 72 66 17 16 22 26 29 23 18 17 20 16 14 9 7 6 7 13 21 54 54 61 61 65 70 70
42 93 100 96 94 99 97 98 92 100 94 76 69 68 58 94 98 94 60 36 13 16 28 26 31 26 22 16 20 22 22 22 22 20 14 7 8 33 61 68 68 64 70 47
60 97 98 98 100 98 99 82 86 99 94 97 67 85 84 84 77 72 73 54 26 12 24 29 27 27 26 16 19 19 21 25 26 24 21 19 18 9 18 27 33 31 26 19
80 95 92 99 99 94 94 100 98 96 97 99 88 89 97 77 72 76 71 50 22 13 18 22 28 32 30 24 21 30 28 22 18 22 26 29 27 21 21 15 12 16 19 20
68 99 100 98 96 100 99 96 88 100 97 100 98 98 88 97 99 88 80 68 47 18 18 26 23 37 31 29 28 28 30 32 20 18 18 27 36 42 40 33 26 20 19 18
66 89 98 100 100 98 98 98 100 99 98 95 96 84 93 96 98 100 76 80 64 40 21 22 31 30 32 33 31 29 26 26 32 21 22 22 22 29 36 46 52 50 45 55
81 98 98 100 99 100 88 94 99 97 99 95 96 80 96 97 98 94 82 98 98 73 27 28 31 42 37 36 37 38 36 37 23 27 24 25 27 32 32 26 22 28 39 48
79 96 98 100 100 98 99 99 99 98 97 95 86 99 92 97 98 98 98 96 86 94 76 38 28 37 40 47 45 45 46 47 43 33 33 31 38 42 38 28 27 25 24 23
49 84 97 96 100 99 100 99 99 96 97 98 99 98 98 88 91 90 94 87 92 98 97 96 77 53 46 50 55 58 63 58 57 52 41 42 49 46 34 35 34 35 36 30
98 86 100 99 100 99 98 99 98 98 99 96 98 95 98 96 98 72 59 81 87 86 83 72 66 46 44 42 43 48 77 84 74 69 57 44 45 49 50 48 51 57 38 34
100 98 100 100 96 98 100 100 100 99 98 100 92 89 100 96 91 82 89 92 98 97 96 91 72 60 57 48 64 69 73 65 70 79 82 73 53 46 57 65 72 66 63 62
100 100 100 100 99 94 99 97 99 98 95 96 97 100 96 98 98 97 97 92 95 96 95 99 97 93 84 84 100 99 84 71 90 99 98 95 73 61 51 60 65 77 87 65
73 100 100 100 100 96 98 100 99 96 98 99 99 100 99 99 97 84 93 100 99 97 95 97 98 99 97 100 94 95 98 97 78 79 95 92 73 70 60 59 98 98 94 86
42 100 100 100 100 100 96 96 96 96 100 98 98 97 100 99 99 99 100 98 95 92 83 65 49 64 94 98 97 94 83 82 78 70 71 74 81 67 63 78 70 83 98 100
19 89 100 100 100 99 100 100 99 100 100 100 90 90 93 86 73 89 86 82 69 67 61 55 70 75 32 41 62 86 97 99 98 98 99 92 77 68 88 92 89 84 83 83
56 39 97 100 99 98 100 99 100 100 100 100 100 100 99 100 99 100 99 85 86 52 49 68 38 53 57 54 48 47 40 67 76 88 93 98 95 94 97 98 99 94 89 96
92 65 84 99 90 99 100 99 96 96 99 98 98 99 99 99 99 98 92 89 79 64 37 28 32 38 42 39 39 34 29 35 36 38 55 77 91 97 95 93 86 97 97 96
100 88 88 85 90 78 98 92 92 91 82 86 84 72 71 85 84 63 32 19 23 18 14 13 11 9 8 8 8 6 6 10 21 48 53 56 62 78 81 93 98 100 100 100
97 100 99 100 100 98 100 92 76 50 29 19 15 11 11 12 9 10 16 14 11 10 10 9 8 8 7 7 7 7 7 9 14 23 31 40 60 75 93 99 92 86 88 99
100 100 89 88 100 100 100 100 79 47 30 22 22 22 22 22 21 17 14 13 15 16 17 16 16 13 11 8 7 6 6 6 6 8 12 21 39 58 77 72 72 92 88 87

GFSCGP_500_rhum_075.txt.gz
RH
6 6 6 6 11 51 62 97 94 82 52 79 93 95 78 89 100 74 66 60 40 18 9 13 23 33 14 12 15 20 31 34 30 67 38 74 95 86 86 84 77 75 85 84
8 7 7 7 12 47 55 82 76 60 52 96 84 94 100 89 83 84 66 61 44 19 10 14 23 21 12 12 20 22 39 37 34 32 53 91 95 85 79 90 96 92 96 89
9 7 6 8 22 55 54 93 83 64 74 97 100 98 93 66 81 90 80 71 54 25 10 14 28 15 13 10 15 26 39 45 40 36 56 84 80 89 92 96 96 97 96 100
9 6 7 9 43 77 59 86 91 96 94 93 89 79 84 92 92 93 87 69 52 44 9 18 22 16 16 11 10 13 37 47 48 47 66 56 37 95 81 91 96 100 100 98
8 6 9 12 66 93 73 100 95 86 72 84 70 66 56 67 59 74 91 84 74 31 10 26 18 18 17 14 9 8 10 37 42 48 44 43 42 35 42 62 70 89 94 90
5 4 6 30 72 90 89 98 95 71 78 79 74 64 47 52 70 83 72 100 91 22 13 22 20 22 19 16 14 9 7 8 18 20 29 33 37 41 39 43 48 51 46 55
5 4 6 24 65 94 100 90 99 94 95 67 69 76 42 72 75 68 84 95 72 47 23 20 19 22 23 18 16 16 13 9 8 7 6 9 15 30 37 39 49 59 46 42
7 5 19 29 74 99 94 94 94 95 99 88 84 62 49 79 76 89 95 94 75 65 20 18 22 22 25 21 18 21 21 21 20 18 16 13 6 15 44 52 49 54 54 57
9 8 21 67 89 98 87 90 94 99 95 83 77 72 98 93 91 55 76 83 82 66 18 23 21 30 26 24 18 20 22 22 21 23 22 20 20 13 18 36 36 32 46 49
20 10 64 76 99 98 99 100 97 98 97 86 76 86 81 81 85 72 89 86 77 54 38 16 22 25 30 26 18 21 26 26 22 18 23 24 24 24 21 16 13 24 28 27
16 6 49 80 100 100 100 98 96 99 94 91 98 89 78 94 99 98 96 90 62 71 45 17 20 21 34 30 26 22 24 28 25 22 18 18 20 29 32 34 28 20 16 15
21 6 40 88 100 100 100 98 97 99 97 96 100 95 88 100 97 100 91 86 64 66 69 30 20 22 24 33 34 30 27 28 27 23 24 22 21 23 28 34 40 47 52 46
15 14 21 92 98 100 99 100 96 100 98 95 98 100 99 97 97 98 74 83 69 60 75 63 31 20 22 26 31 35 32 29 30 25 21 24 23 24 26 27 27 26 23 23
11 6 18 84 100 100 100 100 98 100 96 98 95 98 99 97 100 88 90 97 95 77 69 61 61 44 21 22 25 32 39 40 34 35 35 27 28 28 31 32 34 24 25 24
6 3 9 88 98 100 100 100 100 95 99 96 98 98 98 98 94 93 84 85 96 100 78 64 70 68 62 43 24 29 39 44 49 48 47 48 39 38 36 38 43 37 28 28
8 4 6 75 91 99 100 98 98 97 99 98 97 94 88 97 94 97 100 93 100 86 87 87 94 81 70 66 80 83 66 33 30 40 51 50 54 52 43 37 39 44 44 48
15 3 5 76 99 98 98 99 99 98 99 99 97 96 100 96 99 97 100 100 100 100 95 89 100 97 94 67 68 62 58 92 97 80 51 53 53 53 53 48 40 44 50 55
24 12 27 94 100 100 98 100 99 99 99 98 99 99 100 97 95 87 99 98 96 88 86 94 99 97 99 94 80 71 68 76 85 96 97 94 83 65 57 55 55 37 36 45
22 21 67 100 100 100 96 99 99 99 100 98 98 98 98 98 98 100 100 93 81 72 88 99 100 99 98 99 96 95 85 74 74 82 86 92 91 100 91 99 100 71 43 43
11 19 56 100 100 100 100 100 97 97 97 99 99 100 97 87 91 100 88 78 79 91 94 100 99 97 97 98 99 96 97 96 92 91 80 73 78 88 86 92 91 99 94 97
69 6 58 100 99 96 100 100 100 100 100 100 98 99 99 100 99 100 96 85 91 100 100 100 95 88 90 93 91 83 80 90 88 100 98 86 79 75 76 84 94 92 93 91
99 44 14 96 92 99 100 100 100 100 99 100 100 100 100 100 93 96 92 92 87 85 74 67 81 88 78 63 51 45 52 49 61 80 78 62 60 74 74 72 81 81 99 100
97 79 46 64 96 100 97 100 100 99 100 100 100 99 100 100 98 95 98 89 86 92 82 72 76 80 59 49 41 39 42 48 52 51 46 40 38 40 33 32 35 52 82 79
98 84 94 92 100 94 94 91 100 100 98 99 99 98 99 98 99 100 100 100 100 99 87 83 84 79 70 51 29 14 16 16 15 13 13 19 26 28 32 32 30 28 37 63
100 98 100 100 100 80 84 94 98 91 93 99 100 99 99 97 92 90 86 86 91 97 92 47 14 13 10 9 8 8 8 7 7 7 6 7 6 7 13 22 43 63 56 51
97 100 100 100 100 100 100 100 100 92 83 79 73 72 77 54 40 33 35 39 36 33 17 14 12 12 12 12 11 10 9 9 8 7 7 6 6 6 5 6 6 9 18 33

GFSCGP_500_rhum_078.txt.gz
RH
8 8 8 7 7 6 6 6 6 12 38 89 80 46 46 44 51 52 74 84 73 67 40 30 17 24 22 21 12 21 38 41 40 80 46 66 88 92 91 96 91 95 96 98
9 8 10 10 9 9 8 7 6 13 54 86 84 63 50 47 56 63 73 76 78 73 29 35 36 26 26 12 12 21 36 48 37 52 34 63 99 99 98 92 87 89 96 96
10 11 12 12 12 11 9 7 7 29 79 84 70 56 53 55 56 60 82 91 83 72 32 32 41 34 18 12 11 13 25 51 46 34 58 84 83 89 95 94 94 95 96 94
12 14 12 12 11 9 8 19 36 48 96 79 82 38 60 74 54 62 86 89 78 76 42 34 46 28 15 14 11 10 12 40 53 48 76 57 42 91 97 97 97 97 96 97
13 12 11 10 9 8 7 33 42 70 87 69 84 44 56 84 60 52 55 84 73 69 36 31 59 24 17 16 12 8 8 16 37 47 50 52 48 52 89 92 96 97 97 97
17 15 13 12 10 6 7 39 64 78 63 56 56 56 42 67 53 53 53 60 64 56 32 53 54 26 20 19 15 13 8 8 15 19 27 33 40 43 36 56 84 94 94 94
20 12 11 8 6 6 7 56 75 65 85 40 72 93 36 69 69 65 61 70 69 37 39 36 41 32 26 22 18 17 16 11 8 7 7 10 17 34 48 43 44 53 63 58
19 12 10 8 8 8 16 77 83 89 81 53 68 74 47 83 91 79 53 63 66 61 71 59 82 40 29 27 22 20 18 21 19 17 16 10 6 13 55 59 58 74 76 55
13 9 10 9 8 12 33 73 90 88 92 70 66 81 75 94 93 81 53 62 65 73 80 77 41 37 34 32 24 20 22 19 22 21 20 20 18 13 21 62 70 68 72 71
18 15 19 12 12 52 96 100 98 97 98 76 78 70 72 94 93 73 53 61 66 82 94 90 39 33 38 32 25 20 22 22 21 18 20 23 23 23 18 16 30 32 31 31
26 18 32 18 16 59 98 98 98 100 100 94 100 81 95 97 98 85 94 74 73 71 74 54 30 31 33 33 28 23 20 26 27 23 16 16 17 18 26 28 20 16 16 17
25 16 15 21 21 68 100 97 98 100 100 83 100 90 89 92 94 77 97 94 68 65 70 79 31 25 27 37 33 28 27 26 28 30 26 24 20 19 22 31 38 42 44 45
24 13 11 18 52 100 100 100 100 100 100 79 97 91 98 98 100 84 92 80 88 73 58 77 51 29 32 35 37 35 34 32 28 30 31 28 26 23 22 20 22 26 29 29
9 10 10 13 55 97 96 100 100 100 99 81 79 90 97 96 100 92 97 97 70 73 64 54 61 61 46 30 39 44 41 42 41 38 37 39 29 27 27 30 34 29 28 22
11 8 7 6 12 94 93 90 99 94 97 80 85 96 99 97 98 99 94 95 66 73 66 61 71 78 84 81 55 29 29 30 33 38 42 39 42 40 33 36 38 36 39 34
12 23 12 8 6 83 94 93 98 79 73 72 78 94 98 98 97 99 96 91 60 68 62 60 64 69 76 76 83 95 98 89 61 66 62 47 53 52 50 42 37 40 43 43
5 8 6 8 8 47 89 95 99 92 69 76 71 98 99 98 96 97 99 97 94 95 68 68 90 79 68 74 80 80 91 99 100 100 98 88 63 60 59 60 59 55 50 41
5 6 7 9 12 27 87 94 100 88 74 76 79 97 99 96 87 98 97 97 98 98 83 89 94 94 85 83 82 83 84 83 82 72 68 98 98 99 97 96 91 89 82 71
4 7 8 13 22 80 100 100 100 100 91 100 92 97 99 98 90 97 97 98 99 98 98 98 96 94 95 83 79 84 83 81 82 84 84 87 96 100 100 98 98 97 97 100
12 7 5 11 35 96 98 100 99 98 99 100 100 99 100 99 95 100 94 100 99 98 96 94 94 94 94 85 91 95 95 89 83 90 88 82 83 85 93 100 99 99 98 98
59 41 10 5 25 97 100 99 100 100 95 99 99 99 96 100 100 98 99 99 97 96 96 98 99 99 93 91 96 97 95 91 94 88 82 84 74 77 89 97 100 98 91 100
98 94 44 11 28 100 100 100 100 100 100 99 97 99 98 99 99 96 82 96 100 99 98 96 96 98 97 92 89 88 90 89 88 77 66 63 60 62 73 72 74 70 68 73
94 94 96 33 46 99 99 100 100 99 100 100 100 97 100 100 99 98 96 97 96 100 100 99 97 94 83 78 79 80 79 64 51 46 43 42 43 45 44 42 40 34 33 34
100 99 90 57 99 91 97 100 100 100 100 100 100 100 100 99 99 99 99 98 96 92 94 96 99 98 96 95 73 67 69 69 66 58 50 37 23 28 32 36 39 38 36 32
99 100 100 100 91 84 100 100 100 98 100 97 100 100 100 100 100 100 100 99 100 99 99 98 100 100 98 90 82 67 62 37 35 33 21 10 7 7 7 7 7 7 7 6
96 100 99 100 100 100 100 100 100 100 98 100 100 99 94 95 96 96 94 93 86 84 82 77 78 81 86 87 91 53 20 10 9 9 9 8 8 8 8 8 8 8 7 6

GFSCGP_500_rhum_081.txt.gz
RH
11 9 8 9 8 7 6 5 4 4 5 4 5 6 15 17 73 39 35 40 31 49 85 79 78 24 12 24 32 16 15 42 48 53 72 63 69 96 98 97 96 97 96 92
12 10 11 9 8 8 8 6 4 4 6 6 6 6 14 18 55 44 45 46 46 61 85 80 62 28 17 33 26 12 16 37 52 45 47 66 53 94 98 96 97 96 96 93
14 12 13 12 10 8 8 5 5 5 6 6 8 7 16 25 44 49 48 44 49 83 84 84 40 38 20 33 15 11 13 26 52 50 41 56 82 95 96 97 95 97 96 97
15 15 12 13 12 12 8 10 7 6 6 5 16 11 15 21 40 52 66 59 85 80 74 74 45 39 31 20 15 11 11 14 45 55 66 85 65 87 97 97 97 92 94 95
17 16 15 14 14 12 10 9 9 8 6 7 27 31 13 31 39 48 59 73 82 55 74 84 74 38 33 18 17 12 9 8 33 42 57 68 47 89 94 98 97 94 97 96
20 19 17 15 14 13 13 11 11 9 7 7 40 44 21 47 44 64 77 98 82 66 83 70 73 40 32 19 20 15 12 9 12 28 33 44 48 45 77 96 96 97 97 97
22 19 19 18 16 14 13 11 9 8 7 11 33 44 22 52 60 93 98 93 96 89 79 42 50 32 37 23 21 19 16 14 8 8 12 18 22 30 45 59 94 97 97 97
22 23 21 19 18 14 12 11 10 9 8 29 54 39 28 58 76 96 95 97 100 78 87 33 39 44 38 38 25 21 17 21 20 18 12 8 6 7 30 45 49 88 99 96
26 26 21 18 15 14 12 11 11 10 21 46 54 54 80 52 85 92 94 88 80 94 77 69 72 78 42 44 43 24 18 22 24 23 21 20 18 15 11 43 50 53 60 61
26 23 19 14 12 12 13 12 12 30 69 86 78 81 70 61 77 80 63 78 82 96 94 84 64 86 34 48 41 27 22 20 21 22 20 22 22 20 18 38 57 61 64 77
30 29 31 22 20 16 15 14 15 67 95 100 99 73 84 75 63 72 69 64 94 99 96 92 92 92 46 50 42 29 25 22 25 27 24 17 18 20 24 22 20 31 35 33
36 35 32 33 31 25 17 24 90 100 96 100 92 74 87 84 64 58 62 75 95 90 94 98 100 97 70 45 43 32 28 24 25 32 31 28 21 20 18 28 32 28 22 20
72 42 30 25 36 23 15 53 100 100 100 91 91 66 99 79 81 73 94 96 88 88 89 97 90 51 25 27 35 34 30 26 27 28 31 32 29 26 23 21 24 36 40 43
51 24 28 25 21 16 22 76 100 100 95 80 76 76 96 100 86 98 91 99 92 75 88 92 92 73 31 54 62 39 39 36 31 31 30 31 29 24 24 24 24 24 25 24
25 27 17 17 13 14 36 94 100 94 94 65 73 64 93 99 100 97 97 87 74 71 84 91 83 79 93 82 88 77 41 44 47 47 47 46 46 40 34 28 26 28 32 31
30 37 21 12 10 8 9 74 100 98 93 67 64 66 86 99 99 99 95 82 74 79 82 89 87 98 100 98 98 94 86 84 87 91 75 80 76 70 61 54 48 43 42 44
25 18 15 19 24 10 5 22 91 98 83 91 63 72 72 98 98 97 98 100 91 94 87 81 95 94 88 98 96 94 96 98 97 97 92 89 90 92 75 74 85 86 80 81
36 9 5 7 11 11 9 6 56 100 83 94 71 71 78 94 97 97 98 98 99 98 92 86 76 82 78 81 82 89 93 93 85 82 93 98 98 98 98 97 95 96 97 96
6 5 5 7 7 9 12 11 81 100 96 82 83 72 88 92 97 99 98 97 97 100 85 80 74 77 79 76 80 84 89 89 90 96 95 90 87 83 80 87 97 100 97 97
6 4 5 8 10 6 30 56 100 99 97 98 79 84 88 94 97 98 97 95 95 98 96 92 88 84 86 90 94 97 96 89 84 85 96 97 98 100 100 93 89 93 97 100
7 5 6 5 6 5 42 95 100 100 100 99 100 93 93 97 99 99 99 97 97 98 98 97 98 91 99 100 100 97 86 76 67 66 80 91 95 98 99 98 98 96 96 95
20 16 13 7 4 3 35 100 100 100 100 100 100 100 100 100 99 99 97 99 100 98 98 99 98 98 96 93 96 96 87 84 92 97 94 92 93 90 84 79 78 87 86 90
79 82 85 57 13 3 65 100 100 100 100 100 100 100 100 99 98 99 99 99 100 98 98 97 93 94 100 100 97 100 100 94 87 83 79 74 72 63 52 47 43 37 34 34
100 100 86 70 16 6 86 100 100 100 100 100 100 100 99 99 99 98 98 99 97 97 100 99 99 100 100 96 93 92 89 86 83 77 69 65 66 63 59 59 54 42 27 17
100 98 88 87 96 71 100 100 100 100 100 100 100 100 100 100 100 100 100 100 100 100 100 100 99 100 96 94 93 94 90 98 95 85 78 72 62 56 49 34 18 13 8 8
100 100 83 100 100 100 100 100 100 100 100 100 94 99 100 100 100 100 100 99 99 99 100 99 99 100 99 97 93 93 92 97 92 96 94 88 77 58 26 11 9 9 9 9

GFSCGP_500_rhum_084.txt.gz
RH
20 22 28 13 11 10 8 7 6 6 6 6 5 4 4 3 2 2 5 16 31 47 31 22 36 49 89 74 16 13 25 19 21 42 46 45 56 62 90 96 96 96 97 96
34 29 18 15 13 11 9 8 7 7 7 6 5 6 4 2 3 4 6 18 46 38 26 26 33 71 94 62 15 16 27 14 22 46 48 40 54 61 81 95 97 96 95 96
71 31 18 16 13 11 10 9 8 7 8 6 5 4 3 4 4 4 9 20 49 35 38 42 74 93 90 36 15 28 16 13 18 44 50 42 34 76 91 95 96 96 95 96
58 61 26 19 16 14 11 11 10 8 6 6 7 6 4 4 4 7 15 33 48 42 48 68 92 96 76 20 19 24 14 11 13 41 52 50 68 76 95 95 96 97 97 95
28 23 21 19 17 14 13 12 11 9 9 9 8 7 5 3 11 15 23 34 48 47 59 100 88 99 51 20 25 18 16 9 9 34 44 51 64 52 86 96 97 96 97 97
23 27 20 20 18 16 14 13 13 10 9 7 7 7 3 7 34 27 34 55 54 73 94 86 93 78 30 25 23 20 16 11 8 17 22 38 50 51 68 98 97 97 96 96
22 22 21 20 20 19 17 14 13 11 10 7 7 5 4 26 52 57 61 70 100 98 97 87 89 70 35 24 20 21 20 17 13 8 10 9 23 28 38 55 96 97 96 96
24 22 22 23 22 19 17 14 14 13 10 6 6 5 7 40 72 55 49 49 51 82 91 97 94 87 34 22 21 24 22 20 17 13 12 13 8 7 9 33 52 97 98 97
28 28 28 26 22 20 19 17 14 12 11 7 6 9 26 52 67 50 48 64 67 78 94 94 98 82 25 22 28 33 22 22 20 20 18 20 20 18 13 20 38 46 96 97
35 34 29 26 25 23 20 16 15 15 12 10 8 12 66 50 56 61 53 73 78 81 89 99 100 75 23 25 32 36 26 21 22 22 19 19 20 21 18 15 49 42 48 72
37 35 35 28 23 20 17 15 14 15 17 15 11 31 80 64 62 54 50 76 77 92 97 97 100 93 39 30 36 46 32 24 22 22 24 21 15 19 19 17 47 55 51 52
46 36 31 35 28 27 22 19 20 20 23 25 49 62 99 88 97 75 61 90 94 100 95 95 100 90 62 34 45 46 36 26 23 22 24 22 21 17 16 17 21 20 28 36
64 45 36 39 42 38 38 33 31 24 18 38 70 61 87 90 94 83 79 97 95 100 100 98 100 93 72 58 53 38 44 30 27 23 25 26 24 20 18 18 15 24 24 23
99 90 75 61 45 37 37 35 29 20 16 40 46 59 92 88 100 97 77 83 94 100 100 98 87 87 65 59 71 41 36 34 30 28 29 31 30 29 21 20 19 18 19 27
100 100 100 47 33 32 28 27 22 14 41 51 62 60 86 88 98 98 83 100 100 100 100 100 92 88 74 77 72 59 55 43 34 34 36 38 42 45 45 38 27 24 24 24
80 95 49 25 28 23 22 15 17 19 68 75 73 71 90 76 97 98 89 96 99 98 98 98 92 75 78 100 98 95 98 95 91 74 78 71 67 65 63 66 60 45 37 35
89 86 45 40 41 33 20 16 9 10 24 76 82 100 80 77 94 99 100 97 100 98 100 100 91 91 99 99 96 96 97 97 97 97 94 95 95 92 94 92 89 71 68 63
60 56 54 44 44 26 17 21 13 8 6 34 77 79 90 93 98 97 99 98 73 92 96 99 99 98 97 93 98 98 98 97 97 97 99 98 94 97 100 99 99 99 98 96
50 44 50 49 50 15 10 14 13 8 60 31 65 71 86 100 96 94 97 99 98 96 87 96 97 94 98 98 88 97 92 84 85 88 94 93 92 94 92 92 96 94 86 89
38 41 52 38 22 11 11 10 9 62 75 90 100 84 78 84 86 90 94 97 97 98 86 91 94 95 97 96 90 92 95 86 96 99 96 91 84 89 100 93 94 93 93 91
40 22 21 9 6 10 9 7 19 100 87 100 92 100 95 94 95 97 97 96 99 98 98 100 87 91 99 97 98 96 95 98 100 98 99 96 82 66 78 96 100 100 99 100
22 14 16 8 9 13 14 8 44 100 100 100 100 100 100 100 100 99 97 94 90 99 98 98 98 98 96 96 98 97 98 100 100 98 93 76 68 63 69 83 92 95 92 93
42 57 49 35 19 12 9 7 87 100 100 100 100 100 100 100 100 100 99 92 95 100 100 100 97 97 99 99 99 95 100 98 97 93 87 79 81 86 84 78 73 72 71 69
94 99 95 80 74 70 17 13 100 100 100 100 100 100 100 100 100 100 99 99 97 98 99 100 100 99 99 99 99 98 98 99 98 94 95 98 92 84 74 65 61 64 66 61
89 93 98 94 85 67 26 23 100 100 100 100 100 100 100 100 100 100 99 99 99 99 99 99 99 98 99 100 100 100 100 99 97 98 100 100 100 100 99 96 94 91 90 79
98 100 100 100 100 100 100 100 100 100 100 100 100 100 100 100 100 100 100 100 99 99 99 99 98 99 99 99 98 99 100 99 99 99 100 99 99 99 100 99 91 77 53 36

GFSCGP_500_rhum_087.txt.gz
RH
99 83 75 34 17 16 16 17 18 14 9 8 7 19 6 6 6 5 4 3 3 3 4 10 18 25 39 28 50 59 62 71 15 22 17 34 49 50 60 68 84 96 97 95
93 75 50 36 43 26 18 15 13 10 9 11 10 15 8 7 6 6 4 3 4 4 4 10 32 43 41 30 58 46 83 40 22 13 17 40 53 43 49 67 66 90 96 96
98 97 78 71 46 32 16 16 14 13 11 10 10 16 8 7 6 5 4 3 4 4 6 15 43 37 23 32 47 71 96 23 17 13 19 47 55 46 43 74 80 92 97 96
95 86 46 43 41 44 33 18 14 12 11 10 9 14 9 8 8 6 5 5 5 4 6 32 45 33 35 49 57 94 39 27 12 12 22 48 59 73 79 71 97 97 96 97
71 60 98 91 69 44 33 27 18 15 12 9 9 10 17 11 11 11 10 7 5 6 20 43 40 52 59 70 81 69 24 20 12 10 20 32 51 67 62 90 97 95 97 95
87 78 58 33 39 70 46 21 18 15 13 13 12 10 16 10 8 7 6 5 8 10 32 44 45 82 71 79 81 42 26 19 10 9 11 19 34 40 44 59 96 97 97 92
69 56 27 22 23 22 33 23 19 16 13 13 12 14 12 10 7 4 8 16 20 21 34 47 56 73 80 98 78 23 22 19 14 13 9 11 9 19 20 37 70 96 97 97
41 38 44 28 27 22 21 20 19 18 16 15 13 12 9 7 4 4 17 32 24 22 44 48 62 73 85 94 66 26 20 19 19 19 16 10 11 8 8 13 45 96 96 97
41 29 25 25 22 22 22 22 20 19 16 15 13 10 9 7 7 17 36 42 39 43 54 64 83 74 94 94 64 30 20 21 20 22 24 21 20 19 16 11 30 76 96 96
35 35 32 29 26 25 25 24 23 22 20 14 10 10 10 7 22 54 53 56 53 63 68 98 97 99 88 92 49 28 20 22 21 21 23 23 21 19 18 15 24 43 74 97
49 44 52 79 39 31 29 26 25 22 18 14 11 11 36 14 36 54 72 62 59 68 74 96 100 96 91 91 34 28 23 25 20 20 19 19 17 17 18 16 35 50 54 73
65 59 58 51 40 34 29 26 23 19 16 13 10 13 22 76 74 74 58 66 65 96 98 98 100 99 97 73 36 30 31 25 24 20 20 22 20 14 15 17 18 53 55 55
65 61 49 43 44 38 31 32 26 20 17 16 14 13 17 63 98 81 92 72 70 92 98 97 91 94 96 98 64 30 38 32 26 23 20 21 22 18 16 16 16 21 21 30
94 68 60 49 52 52 50 47 39 29 24 20 18 16 22 38 76 83 100 88 74 97 97 99 98 100 100 96 80 40 42 34 31 28 24 23 26 27 23 18 17 18 17 24
100 99 93 88 63 58 56 46 37 32 30 17 21 17 44 45 59 80 97 97 78 97 100 97 98 88 93 76 84 66 59 39 37 37 30 28 31 35 38 36 28 22 21 20
100 100 100 100 96 76 56 30 32 28 24 20 14 17 21 53 70 81 98 99 92 98 99 97 100 90 96 99 98 84 86 57 50 43 36 34 38 47 51 53 55 48 35 27
100 99 96 99 80 37 34 32 24 24 16 16 12 11 47 66 79 84 95 98 99 95 100 100 92 90 90 93 98 96 88 77 76 72 45 50 64 70 74 72 74 77 68 56
100 94 80 85 69 45 40 40 31 24 18 12 10 6 16 49 72 86 95 97 96 99 98 99 98 91 93 99 94 96 97 97 95 94 92 91 97 99 97 98 93 94 98 98
92 82 62 61 53 43 46 42 26 20 17 15 13 7 23 32 72 84 93 97 98 97 97 99 97 95 91 88 88 94 96 96 97 98 98 100 100 96 91 91 92 93 96 96
43 39 29 30 29 39 40 20 10 11 11 17 11 17 33 76 78 90 99 97 98 98 93 98 99 91 88 83 87 97 98 97 99 95 95 93 92 87 80 79 82 84 98 96
31 28 34 35 43 41 16 8 9 8 38 48 35 62 98 79 79 87 95 96 98 97 98 72 95 95 94 89 96 91 97 98 89 88 94 92 95 96 91 90 83 73 67 76
46 47 43 40 27 13 17 15 11 36 62 82 80 100 99 100 100 100 100 100 97 95 99 98 95 96 86 85 95 98 98 96 97 100 95 96 97 99 98 92 79 72 72 71
36 31 22 25 42 51 22 15 12 63 100 100 99 100 100 100 100 100 100 100 98 99 100 100 99 97 97 99 91 97 99 96 96 95 97 91 99 99 95 95 86 75 75 76
23 36 72 75 86 79 28 16 10 88 100 100 100 100 100 100 100 100 99 98 100 98 97 97 97 97 98 99 99 99 98 94 97 98 98 100 100 96 97 95 84 77 74 74
74 79 80 94 98 70 46 26 60 100 100 99 100 100 100 100 100 100 100 100 100 100 100 99 98 98 99 98 97 99 98 98 98 98 98 98 97 97 98 94 90 89 89 87
82 86 91 90 89 97 99 84 73 100 100 100 100 100 100 100 100 100 100 100 100 99 98 99 98 99 98 99 99 100 99 99 97 97 98 99 100 100 98 92 88 90 91 87

GFSCGP_500_rhum_090.txt.gz
RH
39 98 88 100 96 97 19 15 19 25 24 23 25 20 22 20 6 6 6 5 5 5 4 4 3 3 4 6 13 21 40 39 44 55 74 32 23 20 40 50 62 79 93 98
5 69 100 98 56 55 64 43 31 17 16 18 20 30 31 12 8 7 6 6 6 6 5 4 4 4 4 8 23 39 43 41 60 56 73 26 17 25 48 49 50 63 71 89
3 16 98 99 98 93 95 61 52 39 17 15 20 25 16 15 9 8 8 8 8 7 5 4 4 5 4 18 35 48 31 52 61 72 42 25 14 33 56 48 44 48 58 73
3 13 73 98 98 84 80 62 80 56 25 17 23 28 22 16 10 8 7 7 7 6 6 5 6 5 6 29 43 33 31 44 73 80 32 13 17 45 56 64 78 78 76 96
7 19 60 100 100 94 96 91 60 55 46 27 23 22 17 15 11 10 8 8 10 11 10 8 7 5 16 34 29 24 35 70 82 51 18 11 21 37 55 66 66 67 95 92
9 30 70 99 100 92 64 51 45 38 26 35 29 25 21 14 12 11 11 13 16 14 10 7 6 8 38 33 34 38 71 78 84 27 12 9 16 24 41 44 59 83 96 96
9 32 67 100 99 100 97 90 95 81 57 38 31 16 15 14 14 13 14 14 11 9 4 13 12 35 39 39 45 83 90 90 45 20 10 9 11 10 21 22 43 75 95 94
19 37 62 100 99 78 60 42 44 49 39 22 17 14 14 14 13 14 13 9 4 3 9 23 33 43 40 60 74 98 95 78 28 17 16 14 9 10 9 8 18 67 96 94
35 44 58 91 98 83 57 40 27 26 30 22 17 16 15 14 13 10 7 5 4 20 28 28 41 48 47 64 93 100 97 50 25 22 18 17 18 20 18 15 12 66 98 97
67 52 57 51 94 82 48 36 33 26 23 21 19 18 43 16 12 9 7 6 9 35 36 40 54 58 64 72 100 100 95 43 25 25 18 22 24 22 19 16 14 37 97 96
88 80 84 52 36 48 36 34 30 46 25 24 24 77 23 33 17 9 8 24 27 49 52 58 63 78 86 97 99 100 92 33 28 25 18 22 21 18 18 16 15 49 75 97
100 100 100 97 92 90 84 46 66 28 26 25 24 26 21 20 42 41 21 53 51 60 63 62 77 99 98 100 96 98 86 35 38 24 21 20 23 19 15 18 18 58 56 66
86 96 100 100 92 87 74 66 34 30 28 25 22 30 19 20 17 43 82 59 67 73 63 61 86 84 92 92 98 97 55 42 39 28 23 21 25 25 20 17 17 23 45 54
99 98 100 100 84 73 50 40 34 31 29 27 25 21 20 12 12 44 100 84 70 71 71 66 80 78 96 91 97 68 49 39 45 30 26 22 22 28 30 24 21 18 21 24
99 100 96 68 61 66 65 53 48 41 34 29 30 26 17 15 13 23 64 93 98 80 69 79 99 98 99 98 66 96 79 48 44 42 27 26 23 26 30 32 26 24 22 19
100 98 91 77 72 68 63 55 47 42 38 36 30 25 20 14 11 17 56 58 96 89 76 94 95 96 93 76 84 96 82 72 56 41 32 32 28 28 32 35 36 32 25 24
100 100 98 98 100 100 85 72 45 37 37 36 32 22 17 12 15 31 59 63 88 100 81 97 93 96 99 95 98 98 96 99 80 79 41 40 34 32 35 43 47 48 50 45
100 100 100 100 98 82 66 50 41 38 35 33 30 26 16 12 9 40 58 65 81 100 98 93 95 98 99 98 98 97 98 97 89 85 54 43 39 39 43 55 71 81 80 83
98 100 100 86 90 72 51 45 43 42 35 31 25 22 18 13 8 15 47 62 81 95 94 98 92 93 94 94 97 97 98 98 96 90 72 71 57 46 68 95 96 93 87 84
45 48 48 42 36 38 42 36 38 41 28 23 19 18 16 14 8 15 49 76 85 98 99 98 92 94 95 94 94 89 90 96 96 98 97 98 97 97 97 100 93 91 90 89
34 26 22 24 28 32 33 42 39 21 23 21 17 16 14 12 21 44 63 98 97 99 98 98 96 97 100 100 100 92 75 79 87 96 96 94 98 98 97 100 94 87 85 83
34 26 19 24 38 39 34 25 14 22 16 16 23 25 32 56 69 86 87 100 99 98 99 95 98 98 100 99 100 100 92 92 99 97 98 98 97 93 94 95 93 89 92 93
28 21 20 28 35 34 29 22 19 34 70 85 85 81 71 89 98 100 99 98 98 99 98 98 98 100 98 97 98 91 98 100 100 98 98 96 96 97 97 97 95 96 100 100
27 19 17 32 50 68 51 28 12 51 100 99 88 96 97 96 100 100 100 100 99 100 99 99 97 96 98 98 99 98 100 99 99 97 99 98 99 100 100 100 100 100 99 97
19 19 31 70 77 83 60 31 14 58 100 100 100 100 100 100 100 100 100 100 100 100 100 100 99 99 95 98 98 98 98 99 100 100 100 98 96 97 98 98 98 98 99 100
42 47 88 100 85 88 88 47 24 93 100 100 100 100 100 100 100 100 100 100 100 100 100 99 99 98 98 97 98 99 98 99 99 98 98 98 98 98 98 99 99 99 100 100